| time (UTC) | temp C | wind direction | speed KPH | gust KPH | rain 1hr cm | rain 24hr cm | rain mn cm | humidity % | barometer mb |
| 20260503050748 | 14 | 198 | 8.0 | 11.3 | 0.00 | 0.00 | 0.00 | 51 | 1008.0 |
| 20260503050603 | 14 | 199 | 6.4 | 11.3 | 0.00 | 0.00 | 0.00 | 51 | 1008.0 |
| 20260503050527 | 14 | 198 | 6.4 | 11.3 | 0.00 | 0.00 | 0.00 | 51 | 1008.0 |
| 20260503050404 | 15 | 227 | 6.4 | 11.3 | 0.00 | 0.00 | 0.00 | 51 | 1008.0 |
| 20260503050307 | 15 | 207 | 6.4 | 11.3 | 0.00 | 0.00 | 0.00 | 51 | 1008.0 |
| 20260503050215 | 15 | 207 | 6.4 | 11.3 | 0.00 | 0.00 | 0.00 | 51 | 1008.1 |
| 20260503050119 | 15 | 207 | 6.4 | 11.3 | 0.00 | 0.00 | 0.00 | 51 | 1008.1 |
| 20260503050014 | 15 | 202 | 6.4 | 11.3 | 0.00 | 0.00 | 0.00 | 51 | 1008.1 |
| 20260503045919 | 15 | 219 | 6.4 | 11.3 | 0.00 | 0.00 | 0.00 | 51 | 1008.1 |
| 20260503045842 | 15 | 217 | 6.4 | 11.3 | 0.00 | 0.00 | 0.00 | 51 | 1008.1 |
| 20260503045705 | 15 | 197 | 4.8 | 14.5 | 0.00 | 0.00 | 0.00 | 51 | 1008.1 |
| 20260503045613 | 15 | 216 | 4.8 | 14.5 | 0.00 | 0.00 | 0.00 | 51 | 1008.1 |
| 20260503045517 | 15 | 213 | 4.8 | 14.5 | 0.00 | 0.00 | 0.00 | 51 | 1008.1 |
| 20260503045422 | 15 | 213 | 4.8 | 14.5 | 0.00 | 0.00 | 0.00 | 51 | 1008.2 |
| 20260503045326 | 15 | 223 | 4.8 | 14.5 | 0.00 | 0.00 | 0.00 | 51 | 1008.1 |
| 20260503045250 | 15 | 217 | 6.4 | 14.5 | 0.00 | 0.00 | 0.00 | 51 | 1008.1 |
| 20260503045106 | 15 | 244 | 6.4 | 14.5 | 0.00 | 0.00 | 0.00 | 51 | 1008.2 |
| 20260503045009 | 15 | 243 | 8.0 | 14.5 | 0.00 | 0.00 | 0.00 | 51 | 1008.2 |
| 20260503044918 | 15 | 207 | 8.0 | 14.5 | 0.00 | 0.00 | 0.00 | 50 | 1008.2 |
| 20260503044822 | 15 | 229 | 9.7 | 14.5 | 0.00 | 0.00 | 0.00 | 51 | 1008.2 |
| 20260503044726 | 15 | 227 | 8.0 | 12.9 | 0.00 | 0.00 | 0.00 | 50 | 1008.2 |
| 20260503044609 | 15 | 198 | 6.4 | 12.9 | 0.00 | 0.00 | 0.00 | 51 | 1008.2 |
| 20260503044513 | 15 | 206 | 6.4 | 12.9 | 0.00 | 0.00 | 0.00 | 50 | 1008.1 |
| 20260503044418 | 15 | 212 | 6.4 | 12.9 | 0.00 | 0.00 | 0.00 | 51 | 1008.1 |
| 20260503044326 | 15 | 192 | 6.4 | 12.9 | 0.00 | 0.00 | 0.00 | 51 | 1008.2 |
| 20260503044228 | 15 | 188 | 8.0 | 12.9 | 0.00 | 0.00 | 0.00 | 50 | 1008.2 |
| 20260503044132 | 15 | 212 | 8.0 | 12.9 | 0.00 | 0.00 | 0.00 | 50 | 1008.2 |
| 20260503044014 | 15 | 235 | 6.4 | 12.9 | 0.00 | 0.00 | 0.00 | 50 | 1008.2 |
| 20260503043919 | 15 | 213 | 6.4 | 12.9 | 0.00 | 0.00 | 0.00 | 50 | 1008.3 |
| 20260503043803 | 15 | 217 | 6.4 | 12.9 | 0.00 | 0.00 | 0.00 | 50 | 1008.3 |
| 20260503043707 | 15 | 211 | 4.8 | 12.9 | 0.00 | 0.00 | 0.00 | 51 | 1008.3 |
| 20260503043615 | 15 | 209 | 6.4 | 12.9 | 0.00 | 0.00 | 0.00 | 50 | 1008.3 |
| 20260503043520 | 15 | 210 | 8.0 | 12.9 | 0.00 | 0.00 | 0.00 | 50 | 1008.3 |
| 20260503043405 | 15 | 182 | 6.4 | 11.3 | 0.00 | 0.00 | 0.00 | 50 | 1008.3 |
| 20260503043309 | 15 | 194 | 6.4 | 11.3 | 0.00 | 0.00 | 0.00 | 50 | 1008.3 |
| 20260503043212 | 15 | 209 | 6.4 | 11.3 | 0.00 | 0.00 | 0.00 | 50 | 1008.3 |
| 20260503043115 | 15 | 217 | 6.4 | 12.9 | 0.00 | 0.00 | 0.00 | 50 | 1008.3 |
| 20260503043004 | 15 | 211 | 6.4 | 12.9 | 0.00 | 0.00 | 0.00 | 50 | 1008.4 |
| 20260503042908 | 15 | 211 | 6.4 | 12.9 | 0.00 | 0.00 | 0.00 | 50 | 1008.4 |
| 20260503042812 | 15 | 205 | 8.0 | 12.9 | 0.00 | 0.00 | 0.00 | 50 | 1008.4 |
| 20260503042716 | 15 | 240 | 8.0 | 12.9 | 0.00 | 0.00 | 0.00 | 50 | 1008.4 |
| 20260503042622 | 15 | 223 | 6.4 | 12.9 | 0.00 | 0.00 | 0.00 | 50 | 1008.4 |
| 20260503042507 | 15 | 211 | 6.4 | 12.9 | 0.00 | 0.00 | 0.00 | 50 | 1008.5 |
| 20260503042417 | 15 | 210 | 6.4 | 12.9 | 0.00 | 0.00 | 0.00 | 50 | 1008.4 |
| 20260503042322 | 15 | 203 | 6.4 | 12.9 | 0.00 | 0.00 | 0.00 | 50 | 1008.4 |
| 20260503042207 | 15 | 204 | 8.0 | 11.3 | 0.00 | 0.00 | 0.00 | 50 | 1008.5 |
| 20260503042111 | 15 | 199 | 8.0 | 11.3 | 0.00 | 0.00 | 0.00 | 50 | 1008.5 |
| 20260503042017 | 15 | 193 | 6.4 | 11.3 | 0.00 | 0.00 | 0.00 | 50 | 1008.4 |
| 20260503041907 | 15 | 215 | 4.8 | 11.3 | 0.00 | 0.00 | 0.00 | 51 | 1008.5 |
| 20260503041811 | 15 | 225 | 6.4 | 11.3 | 0.00 | 0.00 | 0.00 | 50 | 1008.5 |
| 20260503041717 | 15 | 223 | 6.4 | 11.3 | 0.00 | 0.00 | 0.00 | 50 | 1008.6 |
| 20260503041603 | 15 | 219 | 6.4 | 11.3 | 0.00 | 0.00 | 0.00 | 50 | 1008.5 |
| 20260503041509 | 15 | 222 | 6.4 | 11.3 | 0.00 | 0.00 | 0.00 | 50 | 1008.6 |
| 20260503041414 | 15 | 221 | 4.8 | 9.7 | 0.00 | 0.00 | 0.00 | 50 | 1008.6 |
| 20260503041304 | 15 | 212 | 4.8 | 9.7 | 0.00 | 0.00 | 0.00 | 51 | 1008.6 |
| 20260503041208 | 15 | 213 | 6.4 | 9.7 | 0.00 | 0.00 | 0.00 | 51 | 1008.6 |
| 20260503041113 | 15 | 213 | 6.4 | 9.7 | 0.00 | 0.00 | 0.00 | 50 | 1008.6 |
| 20260503041037 | 15 | 221 | 6.4 | 9.7 | 0.00 | 0.00 | 0.00 | 50 | 1008.5 |
| 20260503040921 | 15 | 211 | 6.4 | 11.3 | 0.00 | 0.00 | 0.00 | 50 | 1008.7 |
| 20260503040806 | 15 | 214 | 6.4 | 11.3 | 0.00 | 0.00 | 0.00 | 50 | 1008.7 |
| 20260503040715 | 15 | 209 | 6.4 | 11.3 | 0.00 | 0.00 | 0.00 | 50 | 1008.6 |
| 20260503040618 | 15 | 207 | 4.8 | 11.3 | 0.00 | 0.00 | 0.00 | 50 | 1008.6 |
| 20260503040522 | 15 | 202 | 4.8 | 11.3 | 0.00 | 0.00 | 0.00 | 51 | 1008.6 |
| 20260503040406 | 15 | 207 | 6.4 | 11.3 | 0.00 | 0.00 | 0.00 | 51 | 1008.6 |
| 20260503040329 | 15 | 207 | 6.4 | 11.3 | 0.00 | 0.00 | 0.00 | 50 | 1008.7 |
| 20260503040206 | 15 | 220 | 6.4 | 11.3 | 0.00 | 0.00 | 0.00 | 50 | 1008.7 |
| 20260503040115 | 15 | 217 | 6.4 | 11.3 | 0.00 | 0.00 | 0.00 | 50 | 1008.7 |
| 20260503040019 | 15 | 221 | 6.4 | 11.3 | 0.00 | 0.00 | 0.00 | 51 | 1008.7 |
| 20260503035904 | 15 | 207 | 6.4 | 11.3 | 0.00 | 0.00 | 0.00 | 51 | 1008.8 |
| 20260503035807 | 15 | 215 | 6.4 | 11.3 | 0.00 | 0.00 | 0.00 | 51 | 1008.7 |
| 20260503035712 | 15 | 198 | 6.4 | 11.3 | 0.00 | 0.00 | 0.00 | 51 | 1008.8 |
| 20260503035616 | 15 | 197 | 6.4 | 11.3 | 0.00 | 0.00 | 0.00 | 51 | 1008.8 |
| 20260503035540 | 15 | 195 | 6.4 | 11.3 | 0.00 | 0.00 | 0.00 | 51 | 1008.8 |
| 20260503035407 | 15 | 230 | 6.4 | 11.3 | 0.00 | 0.00 | 0.00 | 51 | 1008.8 |
| 20260503035311 | 15 | 198 | 4.8 | 11.3 | 0.00 | 0.00 | 0.00 | 51 | 1008.8 |
| 20260503035234 | 15 | 209 | 6.4 | 11.3 | 0.00 | 0.00 | 0.00 | 52 | 1008.8 |
| 20260503035117 | 15 | 209 | 4.8 | 11.3 | 0.00 | 0.00 | 0.00 | 52 | 1008.9 |
| 20260503035021 | 15 | 228 | 4.8 | 11.3 | 0.00 | 0.00 | 0.00 | 52 | 1009.0 |
| 20260503034944 | 15 | 219 | 3.2 | 11.3 | 0.00 | 0.00 | 0.00 | 52 | 1009.0 |
| 20260503034811 | 15 | 219 | 3.2 | 11.3 | 0.00 | 0.00 | 0.00 | 52 | 1009.0 |
| 20260503034735 | 15 | 219 | 4.8 | 11.3 | 0.00 | 0.00 | 0.00 | 52 | 1009.1 |
| 20260503034618 | 15 | 219 | 4.8 | 11.3 | 0.00 | 0.00 | 0.00 | 51 | 1009.1 |
| 20260503034521 | 15 | 204 | 4.8 | 9.7 | 0.00 | 0.00 | 0.00 | 52 | 1009.0 |
| 20260503034405 | 15 | 203 | 6.4 | 9.7 | 0.00 | 0.00 | 0.00 | 52 | 1009.0 |
| 20260503034309 | 15 | 202 | 6.4 | 9.7 | 0.00 | 0.00 | 0.00 | 52 | 1009.0 |
| 20260503034212 | 15 | 204 | 6.4 | 9.7 | 0.00 | 0.00 | 0.00 | 52 | 1009.0 |
| 20260503034139 | 15 | 211 | 4.8 | 9.7 | 0.00 | 0.00 | 0.00 | 52 | 1009.0 |
| 20260503034042 | 15 | 202 | 4.8 | 9.7 | 0.00 | 0.00 | 0.00 | 52 | 1009.1 |
| 20260503033925 | 15 | 208 | 4.8 | 9.7 | 0.00 | 0.00 | 0.00 | 51 | 1009.1 |
| 20260503033828 | 15 | 208 | 4.8 | 9.7 | 0.00 | 0.00 | 0.00 | 51 | 1009.2 |
| 20260503033706 | 15 | 211 | 6.4 | 9.7 | 0.00 | 0.00 | 0.00 | 52 | 1009.1 |
| 20260503033629 | 15 | 211 | 6.4 | 9.7 | 0.00 | 0.00 | 0.00 | 52 | 1009.2 |
| 20260503033511 | 15 | 220 | 4.8 | 9.7 | 0.00 | 0.00 | 0.00 | 51 | 1009.2 |
| 20260503033435 | 15 | 200 | 4.8 | 8.0 | 0.00 | 0.00 | 0.00 | 52 | 1009.2 |
| 20260503033323 | 15 | 198 | 4.8 | 11.3 | 0.00 | 0.00 | 0.00 | 52 | 1009.1 |
| 20260503033207 | 15 | 198 | 4.8 | 11.3 | 0.00 | 0.00 | 0.00 | 51 | 1009.2 |
| 20260503033111 | 15 | 198 | 4.8 | 11.3 | 0.00 | 0.00 | 0.00 | 51 | 1009.4 |
| 20260503033014 | 15 | 198 | 3.2 | 11.3 | 0.00 | 0.00 | 0.00 | 51 | 1009.3 |
| 20260503032919 | 15 | 198 | 4.8 | 12.9 | 0.00 | 0.00 | 0.00 | 50 | 1009.4 |
| 20260503032823 | 15 | 198 | 4.8 | 12.9 | 0.00 | 0.00 | 0.00 | 51 | 1009.4 |
| 20260503032731 | 15 | 197 | 4.8 | 12.9 | 0.00 | 0.00 | 0.00 | 51 | 1009.4 |
| 20260503032614 | 15 | 197 | 4.8 | 12.9 | 0.00 | 0.00 | 0.00 | 50 | 1009.4 |
| 20260503032537 | 15 | 198 | 6.4 | 12.9 | 0.00 | 0.00 | 0.00 | 50 | 1009.4 |
| 20260503032420 | 15 | 203 | 4.8 | 12.9 | 0.00 | 0.00 | 0.00 | 50 | 1009.4 |
| 20260503032304 | 15 | 200 | 6.4 | 12.9 | 0.00 | 0.00 | 0.00 | 50 | 1009.5 |
| 20260503032229 | 15 | 212 | 8.0 | 12.9 | 0.00 | 0.00 | 0.00 | 50 | 1009.5 |
| 20260503032106 | 15 | 205 | 8.0 | 12.9 | 0.00 | 0.00 | 0.00 | 50 | 1009.4 |
| 20260503032012 | 15 | 175 | 6.4 | 8.0 | 0.00 | 0.00 | 0.00 | 50 | 1009.4 |
| 20260503031916 | 15 | 184 | 6.4 | 8.0 | 0.00 | 0.00 | 0.00 | 49 | 1009.5 |
| 20260503031819 | 15 | 194 | 6.4 | 8.0 | 0.00 | 0.00 | 0.00 | 49 | 1009.5 |
| 20260503031705 | 15 | 197 | 4.8 | 6.4 | 0.00 | 0.00 | 0.00 | 49 | 1009.7 |
| 20260503031609 | 15 | 217 | 3.2 | 6.4 | 0.00 | 0.00 | 0.00 | 49 | 1009.7 |
| 20260503031533 | 15 | 219 | 1.6 | 4.8 | 0.00 | 0.00 | 0.00 | 49 | 1009.8 |
| 20260503031420 | 15 | 219 | 1.6 | 4.8 | 0.00 | 0.00 | 0.00 | 48 | 1009.9 |
| 20260503031324 | 15 | 219 | 1.6 | 4.8 | 0.00 | 0.00 | 0.00 | 49 | 1009.9 |
| 20260503031227 | 15 | 219 | 1.6 | 4.8 | 0.00 | 0.00 | 0.00 | 49 | 1010.0 |
| 20260503031104 | 15 | 219 | 0.0 | 4.8 | 0.00 | 0.00 | 0.00 | 49 | 1010.0 |
| 20260503031009 | 15 | 219 | 1.6 | 6.4 | 0.00 | 0.00 | 0.00 | 49 | 1010.0 |
| 20260503030932 | 15 | 219 | 1.6 | 6.4 | 0.00 | 0.00 | 0.00 | 48 | 1009.9 |
| 20260503030815 | 15 | 219 | 3.2 | 6.4 | 0.00 | 0.00 | 0.00 | 49 | 1010.0 |
| 20260503030722 | 15 | 219 | 3.2 | 6.4 | 0.00 | 0.00 | 0.00 | 49 | 1010.0 |
| 20260503030605 | 15 | 219 | 3.2 | 6.4 | 0.00 | 0.00 | 0.00 | 49 | 1010.0 |
| 20260503030529 | 15 | 219 | 3.2 | 6.4 | 0.00 | 0.00 | 0.00 | 49 | 1009.9 |
| 20260503030412 | 15 | 219 | 3.2 | 6.4 | 0.00 | 0.00 | 0.00 | 48 | 1010.0 |
| 20260503030315 | 15 | 219 | 3.2 | 6.4 | 0.00 | 0.00 | 0.00 | 48 | 1010.0 |
| 20260503030219 | 15 | 219 | 3.2 | 6.4 | 0.00 | 0.00 | 0.00 | 49 | 1010.0 |
| 20260503030127 | 15 | 219 | 3.2 | 6.4 | 0.00 | 0.00 | 0.00 | 49 | 1010.0 |
| 20260503030009 | 15 | 219 | 3.2 | 6.4 | 0.00 | 0.00 | 0.00 | 49 | 1010.0 |
| 20260503025913 | 15 | 219 | 3.2 | 6.4 | 0.00 | 0.00 | 0.00 | 49 | 1010.0 |
| 20260503025818 | 15 | 219 | 3.2 | 6.4 | 0.00 | 0.00 | 0.00 | 49 | 1010.0 |
| 20260503025722 | 15 | 217 | 1.6 | 6.4 | 0.00 | 0.00 | 0.00 | 49 | 1010.0 |
| 20260503025606 | 15 | 217 | 3.2 | 8.0 | 0.00 | 0.00 | 0.00 | 49 | 1010.0 |
| 20260503025529 | 15 | 217 | 3.2 | 8.0 | 0.00 | 0.00 | 0.00 | 49 | 1010.1 |
| 20260503025415 | 15 | 217 | 3.2 | 8.0 | 0.00 | 0.00 | 0.00 | 48 | 1010.2 |
| 20260503025319 | 15 | 217 | 3.2 | 8.0 | 0.00 | 0.00 | 0.00 | 48 | 1010.2 |
| 20260503025243 | 15 | 217 | 4.8 | 8.0 | 0.00 | 0.00 | 0.00 | 48 | 1010.2 |
| 20260503025107 | 15 | 217 | 4.8 | 8.0 | 0.00 | 0.00 | 0.00 | 49 | 1010.3 |
| 20260503025032 | 15 | 216 | 4.8 | 8.0 | 0.00 | 0.00 | 0.00 | 48 | 1010.3 |
| 20260503024917 | 15 | 215 | 4.8 | 8.0 | 0.00 | 0.00 | 0.00 | 48 | 1010.3 |
| 20260503024806 | 15 | 215 | 6.4 | 8.0 | 0.00 | 0.00 | 0.00 | 48 | 1010.4 |
| 20260503024731 | 15 | 236 | 6.4 | 8.0 | 0.00 | 0.00 | 0.00 | 48 | 1010.4 |
| 20260503024615 | 15 | 235 | 4.8 | 8.0 | 0.00 | 0.00 | 0.00 | 49 | 1010.5 |
| 20260503024519 | 15 | 248 | 4.8 | 8.0 | 0.00 | 0.00 | 0.00 | 49 | 1010.4 |
| 20260503024406 | 15 | 250 | 4.8 | 8.0 | 0.00 | 0.00 | 0.00 | 48 | 1010.5 |
| 20260503024330 | 15 | 250 | 3.2 | 8.0 | 0.00 | 0.00 | 0.00 | 48 | 1010.6 |
| 20260503024205 | 16 | 249 | 3.2 | 8.0 | 0.00 | 0.00 | 0.00 | 49 | 1010.6 |
| 20260503024134 | 16 | 249 | 3.2 | 8.0 | 0.00 | 0.00 | 0.00 | 48 | 1010.5 |
| 20260503024037 | 16 | 249 | 4.8 | 8.0 | 0.00 | 0.00 | 0.00 | 48 | 1010.6 |
| 20260503023919 | 16 | 249 | 4.8 | 8.0 | 0.00 | 0.00 | 0.00 | 47 | 1010.6 |
| 20260503023823 | 16 | 249 | 4.8 | 8.0 | 0.00 | 0.00 | 0.00 | 48 | 1010.6 |
| 20260503023727 | 16 | 238 | 4.8 | 8.0 | 0.00 | 0.00 | 0.00 | 48 | 1010.6 |
| 20260503023604 | 16 | 238 | 4.8 | 11.3 | 0.00 | 0.00 | 0.00 | 47 | 1010.6 |
| 20260503023528 | 16 | 254 | 4.8 | 12.9 | 0.00 | 0.00 | 0.00 | 48 | 1010.6 |
| 20260503023431 | 16 | 255 | 4.8 | 12.9 | 0.00 | 0.00 | 0.00 | 48 | 1010.6 |
| 20260503023338 | 16 | 255 | 4.8 | 12.9 | 0.00 | 0.00 | 0.00 | 48 | 1010.6 |
| 20260503023220 | 16 | 259 | 6.4 | 12.9 | 0.00 | 0.00 | 0.00 | 48 | 1010.6 |
| 20260503023106 | 16 | 270 | 6.4 | 12.9 | 0.00 | 0.00 | 0.00 | 47 | 1010.6 |
| 20260503023030 | 16 | 263 | 4.8 | 12.9 | 0.00 | 0.00 | 0.00 | 48 | 1010.6 |
| 20260503022913 | 16 | 254 | 4.8 | 12.9 | 0.00 | 0.00 | 0.00 | 48 | 1010.6 |
| 20260503022837 | 16 | 254 | 4.8 | 12.9 | 0.00 | 0.00 | 0.00 | 48 | 1010.6 |
| 20260503022740 | 16 | 294 | 4.8 | 12.9 | 0.00 | 0.00 | 0.00 | 48 | 1010.6 |
| 20260503022642 | 16 | 244 | 3.2 | 11.3 | 0.00 | 0.00 | 0.00 | 48 | 1010.6 |
| 20260503022508 | 16 | 244 | 3.2 | 11.3 | 0.00 | 0.00 | 0.00 | 47 | 1010.7 |
| 20260503022411 | 16 | 265 | 3.2 | 11.3 | 0.00 | 0.00 | 0.00 | 47 | 1010.6 |
| 20260503022316 | 16 | 271 | 4.8 | 12.9 | 0.00 | 0.00 | 0.00 | 47 | 1010.6 |
| 20260503022220 | 16 | 271 | 4.8 | 17.7 | 0.00 | 0.00 | 0.00 | 47 | 1010.7 |
| 20260503022123 | 16 | 277 | 4.8 | 17.7 | 0.00 | 0.00 | 0.00 | 47 | 1010.7 |
| 20260503022027 | 16 | 251 | 4.8 | 17.7 | 0.00 | 0.00 | 0.00 | 47 | 1010.7 |
| 20260503021914 | 16 | 263 | 4.8 | 17.7 | 0.00 | 0.00 | 0.00 | 47 | 1010.7 |
| 20260503021817 | 16 | 245 | 4.8 | 17.7 | 0.00 | 0.00 | 0.00 | 47 | 1010.7 |
| 20260503021721 | 16 | 268 | 4.8 | 17.7 | 0.00 | 0.00 | 0.00 | 47 | 1010.7 |
| 20260503021604 | 16 | 257 | 8.0 | 17.7 | 0.00 | 0.00 | 0.00 | 48 | 1010.7 |
| 20260503021529 | 16 | 274 | 11.3 | 17.7 | 0.00 | 0.00 | 0.00 | 48 | 1010.7 |
| 20260503021405 | 16 | 263 | 9.7 | 17.7 | 0.00 | 0.00 | 0.00 | 47 | 1010.7 |
| 20260503021312 | 16 | 254 | 6.4 | 17.7 | 0.00 | 0.00 | 0.00 | 46 | 1010.8 |
| 20260503021217 | 16 | 259 | 6.4 | 22.5 | 0.00 | 0.00 | 0.00 | 47 | 1010.8 |
| 20260503021121 | 16 | 261 | 4.8 | 32.2 | 0.00 | 0.00 | 0.00 | 47 | 1010.8 |
| 20260503021005 | 16 | 246 | 4.8 | 33.8 | 0.00 | 0.00 | 0.00 | 47 | 1010.8 |
| 20260503020907 | 16 | 242 | 6.4 | 33.8 | 0.00 | 0.00 | 0.00 | 47 | 1010.8 |
| 20260503020812 | 16 | 281 | 8.0 | 33.8 | 0.00 | 0.00 | 0.00 | 46 | 1010.9 |
| 20260503020720 | 16 | 289 | 9.7 | 33.8 | 0.00 | 0.00 | 0.00 | 47 | 1010.9 |
| 20260503020643 | 16 | 313 | 11.3 | 33.8 | 0.00 | 0.00 | 0.00 | 46 | 1011.0 |
| 20260503020505 | 16 | 306 | 17.7 | 33.8 | 0.00 | 0.00 | 0.00 | 46 | 1011.1 |
| 20260503020430 | 16 | 314 | 20.9 | 33.8 | 0.00 | 0.00 | 0.00 | 46 | 1011.1 |
| 20260503020306 | 16 | 300 | 20.9 | 33.8 | 0.00 | 0.00 | 0.00 | 45 | 1011.1 |
| 20260503020210 | 16 | 275 | 14.5 | 33.8 | 0.00 | 0.00 | 0.00 | 45 | 1011.1 |
| 20260503020112 | 16 | 290 | 11.3 | 22.5 | 0.00 | 0.00 | 0.00 | 45 | 1011.1 |
| 20260503020020 | 16 | 262 | 9.7 | 22.5 | 0.00 | 0.00 | 0.00 | 44 | 1011.1 |
| 20260503015924 | 16 | 308 | 9.7 | 22.5 | 0.00 | 0.00 | 0.00 | 45 | 1011.1 |
| 20260503015807 | 16 | 294 | 11.3 | 22.5 | 0.00 | 0.00 | 0.00 | 44 | 1011.1 |
| 20260503015708 | 16 | 338 | 9.7 | 22.5 | 0.00 | 0.00 | 0.00 | 44 | 1011.1 |
| 20260503015612 | 16 | 294 | 11.3 | 22.5 | 0.00 | 0.00 | 0.00 | 44 | 1011.0 |
| 20260503015536 | 16 | 321 | 14.5 | 22.5 | 0.00 | 0.00 | 0.00 | 45 | 1011.1 |
| 20260503015403 | 16 | 333 | 14.5 | 22.5 | 0.00 | 0.00 | 0.00 | 44 | 1011.1 |
| 20260503015308 | 16 | 315 | 16.1 | 22.5 | 0.00 | 0.00 | 0.00 | 43 | 1011.0 |
| 20260503015210 | 16 | 304 | 17.7 | 30.6 | 0.00 | 0.00 | 0.00 | 45 | 1011.0 |
| 20260503015115 | 16 | 295 | 16.1 | 30.6 | 0.00 | 0.00 | 0.00 | 44 | 1010.9 |
| 20260503015018 | 16 | 311 | 14.5 | 30.6 | 0.00 | 0.00 | 0.00 | 44 | 1011.0 |
| 20260503014922 | 16 | 301 | 16.1 | 30.6 | 0.00 | 0.00 | 0.00 | 44 | 1011.0 |
| 20260503014829 | 16 | 311 | 19.3 | 30.6 | 0.00 | 0.00 | 0.00 | 44 | 1010.9 |
| 20260503014705 | 16 | 292 | 19.3 | 30.6 | 0.00 | 0.00 | 0.00 | 43 | 1011.0 |
| 20260503014608 | 16 | 286 | 17.7 | 30.6 | 0.00 | 0.00 | 0.00 | 43 | 1010.9 |
| 20260503014531 | 17 | 309 | 20.9 | 30.6 | 0.00 | 0.00 | 0.00 | 43 | 1010.9 |
| 20260503014413 | 17 | 294 | 22.5 | 30.6 | 0.00 | 0.00 | 0.00 | 43 | 1010.9 |
| 20260503014337 | 17 | 300 | 20.9 | 30.6 | 0.00 | 0.00 | 0.00 | 43 | 1010.9 |
| 20260503014219 | 17 | 309 | 19.3 | 30.6 | 0.00 | 0.00 | 0.00 | 42 | 1010.9 |
| 20260503014126 | 17 | 281 | 19.3 | 30.6 | 0.00 | 0.00 | 0.00 | 43 | 1010.9 |
| 20260503014049 | 17 | 280 | 20.9 | 30.6 | 0.00 | 0.00 | 0.00 | 43 | 1010.8 |
| 20260503013905 | 17 | 291 | 22.5 | 30.6 | 0.00 | 0.00 | 0.00 | 43 | 1010.9 |
| 20260503013808 | 17 | 285 | 20.9 | 30.6 | 0.00 | 0.00 | 0.00 | 43 | 1010.9 |
| 20260503013732 | 17 | 300 | 19.3 | 29.0 | 0.00 | 0.00 | 0.00 | 43 | 1010.9 |
| 20260503013635 | 17 | 292 | 19.3 | 29.0 | 0.00 | 0.00 | 0.00 | 43 | 1010.8 |
| 20260503013517 | 17 | 302 | 20.9 | 29.0 | 0.00 | 0.00 | 0.00 | 43 | 1010.7 |
| 20260503013405 | 17 | 293 | 20.9 | 30.6 | 0.00 | 0.00 | 0.00 | 43 | 1010.8 |
| 20260503013307 | 17 | 307 | 17.7 | 30.6 | 0.00 | 0.00 | 0.00 | 43 | 1010.8 |
| 20260503013209 | 17 | 295 | 14.5 | 30.6 | 0.00 | 0.00 | 0.00 | 43 | 1010.8 |
| 20260503013112 | 17 | 318 | 16.1 | 30.6 | 0.00 | 0.00 | 0.00 | 43 | 1010.8 |
| 20260503013016 | 17 | 279 | 16.1 | 30.6 | 0.00 | 0.00 | 0.00 | 43 | 1010.8 |
| 20260503012918 | 17 | 312 | 14.5 | 30.6 | 0.00 | 0.00 | 0.00 | 43 | 1010.8 |
| 20260503012806 | 17 | 279 | 14.5 | 30.6 | 0.00 | 0.00 | 0.00 | 43 | 1010.8 |
| 20260503012728 | 17 | 300 | 19.3 | 30.6 | 0.00 | 0.00 | 0.00 | 43 | 1010.8 |
| 20260503012604 | 16 | 273 | 22.5 | 30.6 | 0.00 | 0.00 | 0.00 | 42 | 1010.7 |
| 20260503012507 | 16 | 279 | 22.5 | 27.4 | 0.00 | 0.00 | 0.00 | 43 | 1010.8 |
| 20260503012430 | 16 | 293 | 19.3 | 27.4 | 0.00 | 0.00 | 0.00 | 43 | 1010.8 |
| 20260503012313 | 16 | 277 | 12.9 | 27.4 | 0.00 | 0.00 | 0.00 | 44 | 1010.7 |
| 20260503012215 | 16 | 306 | 9.7 | 17.7 | 0.00 | 0.00 | 0.00 | 45 | 1010.8 |
| 20260503012139 | 16 | 298 | 11.3 | 16.1 | 0.00 | 0.00 | 0.00 | 45 | 1010.8 |
| 20260503012004 | 16 | 284 | 12.9 | 16.1 | 0.00 | 0.00 | 0.00 | 44 | 1010.7 |
| 20260503011906 | 16 | 293 | 11.3 | 16.1 | 0.00 | 0.00 | 0.00 | 45 | 1010.7 |
| 20260503011831 | 16 | 299 | 9.7 | 16.1 | 0.00 | 0.00 | 0.00 | 46 | 1010.8 |
| 20260503011712 | 16 | 284 | 11.3 | 16.1 | 0.00 | 0.00 | 0.00 | 45 | 1010.8 |
| 20260503011615 | 16 | 292 | 11.3 | 16.1 | 0.00 | 0.00 | 0.00 | 45 | 1010.7 |
| 20260503011517 | 16 | 291 | 9.7 | 16.1 | 0.00 | 0.00 | 0.00 | 44 | 1010.7 |
| 20260503011403 | 16 | 281 | 8.0 | 16.1 | 0.00 | 0.00 | 0.00 | 46 | 1010.8 |
| 20260503011308 | 16 | 292 | 11.3 | 16.1 | 0.00 | 0.00 | 0.00 | 46 | 1010.7 |
| 20260503011210 | 16 | 277 | 11.3 | 16.1 | 0.00 | 0.00 | 0.00 | 44 | 1010.7 |
| 20260503011113 | 16 | 298 | 11.3 | 14.5 | 0.00 | 0.00 | 0.00 | 45 | 1010.8 |
| 20260503011015 | 17 | 286 | 12.9 | 14.5 | 0.00 | 0.00 | 0.00 | 45 | 1010.8 |
| 20260503010939 | 17 | 299 | 9.7 | 14.5 | 0.00 | 0.00 | 0.00 | 44 | 1010.7 |
| 20260503010822 | 17 | 308 | 6.4 | 16.1 | 0.00 | 0.00 | 0.00 | 45 | 1010.8 |
| 20260503010730 | 17 | 298 | 6.4 | 16.1 | 0.00 | 0.00 | 0.00 | 44 | 1010.7 |
| 20260503010605 | 17 | 276 | 6.4 | 16.1 | 0.00 | 0.00 | 0.00 | 45 | 1010.7 |
| 20260503010510 | 17 | 261 | 4.8 | 16.1 | 0.00 | 0.00 | 0.00 | 45 | 1010.7 |
| 20260503010434 | 17 | 267 | 4.8 | 16.1 | 0.00 | 0.00 | 0.00 | 45 | 1010.8 |
| 20260503010316 | 17 | 246 | 6.4 | 16.1 | 0.00 | 0.00 | 0.00 | 45 | 1010.7 |
| 20260503010220 | 17 | 290 | 8.0 | 16.1 | 0.00 | 0.00 | 0.00 | 45 | 1010.7 |
| 20260503010106 | 17 | 306 | 8.0 | 16.1 | 0.00 | 0.00 | 0.00 | 43 | 1010.8 |
| 20260503010030 | 17 | 286 | 8.0 | 16.1 | 0.00 | 0.00 | 0.00 | 43 | 1010.7 |
| 20260503005905 | 17 | 265 | 6.4 | 12.9 | 0.00 | 0.00 | 0.00 | 44 | 1010.8 |
| 20260503005810 | 17 | 279 | 6.4 | 12.9 | 0.00 | 0.00 | 0.00 | 44 | 1010.8 |
| 20260503005712 | 17 | 266 | 8.0 | 12.9 | 0.00 | 0.00 | 0.00 | 44 | 1010.7 |
| 20260503005616 | 17 | 266 | 6.4 | 14.5 | 0.00 | 0.00 | 0.00 | 43 | 1010.7 |
| 20260503005540 | 17 | 284 | 6.4 | 14.5 | 0.00 | 0.00 | 0.00 | 45 | 1010.8 |
| 20260503005404 | 17 | 274 | 6.4 | 14.5 | 0.00 | 0.00 | 0.00 | 43 | 1010.8 |
| 20260503005327 | 17 | 264 | 6.4 | 14.5 | 0.00 | 0.00 | 0.00 | 43 | 1010.7 |
| 20260503005203 | 17 | 255 | 4.8 | 14.5 | 0.00 | 0.00 | 0.00 | 44 | 1010.8 |
| 20260503005128 | 17 | 255 | 6.4 | 14.5 | 0.00 | 0.00 | 0.00 | 44 | 1010.8 |
| 20260503005006 | 17 | 261 | 8.0 | 16.1 | 0.00 | 0.00 | 0.00 | 44 | 1010.8 |
| 20260503004909 | 17 | 293 | 9.7 | 16.1 | 0.00 | 0.00 | 0.00 | 43 | 1010.8 |
| 20260503004818 | 17 | 261 | 9.7 | 16.1 | 0.00 | 0.00 | 0.00 | 43 | 1010.8 |
| 20260503004743 | 17 | 278 | 8.0 | 16.1 | 0.00 | 0.00 | 0.00 | 44 | 1010.8 |
| 20260503004626 | 17 | 281 | 6.4 | 16.1 | 0.00 | 0.00 | 0.00 | 44 | 1010.8 |
| 20260503004504 | 17 | 256 | 8.0 | 16.1 | 0.00 | 0.00 | 0.00 | 43 | 1010.8 |
| 20260503004406 | 17 | 281 | 9.7 | 16.1 | 0.00 | 0.00 | 0.00 | 44 | 1010.8 |
| 20260503004331 | 17 | 269 | 11.3 | 16.1 | 0.00 | 0.00 | 0.00 | 44 | 1010.9 |
| 20260503004216 | 17 | 290 | 9.7 | 16.1 | 0.00 | 0.00 | 0.00 | 45 | 1010.8 |
| 20260503004139 | 17 | 275 | 8.0 | 16.1 | 0.00 | 0.00 | 0.00 | 46 | 1010.9 |
| 20260503004027 | 17 | 329 | 8.0 | 16.1 | 0.00 | 0.00 | 0.00 | 45 | 1010.8 |
| 20260503003910 | 17 | 282 | 6.4 | 16.1 | 0.00 | 0.00 | 0.00 | 44 | 1010.9 |
| 20260503003814 | 17 | 297 | 4.8 | 16.1 | 0.00 | 0.00 | 0.00 | 44 | 1010.8 |
| 20260503003719 | 17 | 293 | 4.8 | 16.1 | 0.00 | 0.00 | 0.00 | 44 | 1010.8 |
| 20260503003604 | 17 | 251 | 4.8 | 16.1 | 0.00 | 0.00 | 0.00 | 43 | 1010.8 |
| 20260503003510 | 17 | 251 | 4.8 | 16.1 | 0.00 | 0.00 | 0.00 | 43 | 1010.8 |
| 20260503003417 | 17 | 253 | 9.7 | 16.1 | 0.00 | 0.00 | 0.00 | 43 | 1010.7 |
| 20260503003322 | 17 | 273 | 11.3 | 16.1 | 0.00 | 0.00 | 0.00 | 44 | 1010.8 |
| 20260503003226 | 17 | 279 | 6.4 | 12.9 | 0.00 | 0.00 | 0.00 | 43 | 1010.8 |
| 20260503003110 | 17 | 264 | 6.4 | 17.7 | 0.00 | 0.00 | 0.00 | 43 | 1010.8 |
| 20260503003014 | 17 | 264 | 6.4 | 17.7 | 0.00 | 0.00 | 0.00 | 43 | 1010.8 |
| 20260503002919 | 17 | 271 | 9.7 | 17.7 | 0.00 | 0.00 | 0.00 | 43 | 1010.8 |
| 20260503002827 | 17 | 263 | 9.7 | 17.7 | 0.00 | 0.00 | 0.00 | 43 | 1010.8 |
| 20260503002703 | 17 | 300 | 4.8 | 17.7 | 0.00 | 0.00 | 0.00 | 45 | 1010.9 |
| 20260503002627 | 17 | 294 | 4.8 | 17.7 | 0.00 | 0.00 | 0.00 | 45 | 1010.9 |
| 20260503002511 | 17 | 279 | 8.0 | 17.7 | 0.00 | 0.00 | 0.00 | 43 | 1010.9 |
| 20260503002436 | 17 | 281 | 11.3 | 17.7 | 0.00 | 0.00 | 0.00 | 44 | 1011.0 |
| 20260503002319 | 17 | 255 | 11.3 | 17.7 | 0.00 | 0.00 | 0.00 | 43 | 1011.0 |
| 20260503002222 | 17 | 281 | 6.4 | 16.1 | 0.00 | 0.00 | 0.00 | 45 | 1010.9 |
| 20260503002131 | 17 | 284 | 3.2 | 12.9 | 0.00 | 0.00 | 0.00 | 46 | 1011.0 |
| 20260503002008 | 17 | 285 | 6.4 | 12.9 | 0.00 | 0.00 | 0.00 | 45 | 1011.0 |
| 20260503001931 | 17 | 298 | 8.0 | 12.9 | 0.00 | 0.00 | 0.00 | 45 | 1011.0 |
| 20260503001804 | 17 | 286 | 8.0 | 12.9 | 0.00 | 0.00 | 0.00 | 45 | 1011.0 |
| 20260503001728 | 17 | 345 | 6.4 | 12.9 | 0.00 | 0.00 | 0.00 | 45 | 1011.0 |
| 20260503001652 | 17 | 293 | 8.0 | 12.9 | 0.00 | 0.00 | 0.00 | 46 | 1011.0 |
| 20260503001506 | 17 | 298 | 6.4 | 12.9 | 0.00 | 0.00 | 0.00 | 45 | 1010.9 |
| 20260503001414 | 17 | 294 | 4.8 | 12.9 | 0.00 | 0.00 | 0.00 | 46 | 1011.0 |
| 20260503001318 | 17 | 290 | 4.8 | 12.9 | 0.00 | 0.00 | 0.00 | 45 | 1010.9 |
| 20260503001222 | 17 | 305 | 6.4 | 12.9 | 0.00 | 0.00 | 0.00 | 43 | 1011.0 |
| 20260503001127 | 17 | 345 | 8.0 | 14.5 | 0.00 | 0.00 | 0.00 | 42 | 1011.0 |
| 20260503001009 | 17 | 318 | 8.0 | 16.1 | 0.00 | 0.00 | 0.00 | 42 | 1011.0 |
| 20260503000933 | 17 | 5 | 8.0 | 16.1 | 0.00 | 0.00 | 0.00 | 42 | 1011.0 |
| 20260503000816 | 17 | 302 | 8.0 | 17.7 | 0.00 | 0.00 | 0.00 | 45 | 1011.0 |
| 20260503000704 | 17 | 306 | 8.0 | 20.9 | 0.00 | 0.00 | 0.00 | 42 | 1011.0 |
| 20260503000608 | 17 | 296 | 8.0 | 22.5 | 0.00 | 0.00 | 0.00 | 43 | 1011.1 |
| 20260503000532 | 17 | 320 | 9.7 | 22.5 | 0.00 | 0.00 | 0.00 | 42 | 1011.1 |
| 20260503000437 | 17 | 309 | 9.7 | 22.5 | 0.00 | 0.00 | 0.00 | 42 | 1011.1 |
| 20260503000320 | 17 | 338 | 11.3 | 22.5 | 0.00 | 0.00 | 0.00 | 43 | 1011.0 |
| 20260503000223 | 17 | 297 | 11.3 | 22.5 | 0.00 | 0.00 | 0.00 | 43 | 1011.1 |
| 20260503000111 | 17 | 308 | 12.9 | 22.5 | 0.00 | 0.00 | 0.00 | 42 | 1011.1 |
| 20260503000015 | 17 | 290 | 12.9 | 22.5 | 0.00 | 0.00 | 0.00 | 41 | 1011.0 |
| 20260502235918 | 17 | 308 | 14.5 | 22.5 | 0.00 | 0.00 | 0.00 | 42 | 1011.2 |
| 20260502235843 | 17 | 323 | 16.1 | 22.5 | 0.00 | 0.00 | 0.00 | 42 | 1011.1 |
| 20260502235727 | 17 | 321 | 14.5 | 19.3 | 0.00 | 0.00 | 0.00 | 41 | 1011.1 |
| 20260502235604 | 17 | 321 | 12.9 | 19.3 | 0.00 | 0.00 | 0.00 | 40 | 1011.2 |
| 20260502235507 | 17 | 315 | 12.9 | 19.3 | 0.00 | 0.00 | 0.00 | 41 | 1011.1 |
| 20260502235416 | 17 | 284 | 9.7 | 19.3 | 0.00 | 0.00 | 0.00 | 43 | 1011.3 |
| 20260502235321 | 17 | 294 | 8.0 | 19.3 | 0.00 | 0.00 | 0.00 | 42 | 1011.2 |
| 20260502235226 | 17 | 292 | 9.7 | 20.9 | 0.00 | 0.00 | 0.00 | 41 | 1011.2 |
| 20260502235108 | 17 | 345 | 11.3 | 20.9 | 0.00 | 0.00 | 0.00 | 41 | 1011.2 |
| 20260502235011 | 17 | 318 | 11.3 | 20.9 | 0.00 | 0.00 | 0.00 | 42 | 1011.2 |
| 20260502234935 | 17 | 317 | 6.4 | 20.9 | 0.00 | 0.00 | 0.00 | 41 | 1011.2 |
| 20260502234839 | 17 | 296 | 6.4 | 20.9 | 0.00 | 0.00 | 0.00 | 40 | 1011.2 |
| 20260502234706 | 17 | 347 | 9.7 | 20.9 | 0.00 | 0.00 | 0.00 | 40 | 1011.2 |
| 20260502234630 | 17 | 346 | 11.3 | 20.9 | 0.00 | 0.00 | 0.00 | 41 | 1011.2 |
| 20260502234507 | 17 | 286 | 14.5 | 22.5 | 0.00 | 0.00 | 0.00 | 40 | 1011.2 |
| 20260502234411 | 17 | 252 | 9.7 | 22.5 | 0.00 | 0.00 | 0.00 | 40 | 1011.2 |
| 20260502234335 | 17 | 256 | 6.4 | 24.1 | 0.00 | 0.00 | 0.00 | 40 | 1011.1 |
| 20260502234216 | 17 | 346 | 8.0 | 24.1 | 0.00 | 0.00 | 0.00 | 40 | 1011.1 |
| 20260502234105 | 17 | 263 | 8.0 | 29.0 | 0.00 | 0.00 | 0.00 | 41 | 1011.2 |
| 20260502234028 | 17 | 292 | 8.0 | 29.0 | 0.00 | 0.00 | 0.00 | 40 | 1011.2 |
| 20260502233905 | 17 | 275 | 11.3 | 29.0 | 0.00 | 0.00 | 0.00 | 41 | 1011.1 |
| 20260502233809 | 17 | 270 | 14.5 | 29.0 | 0.00 | 0.00 | 0.00 | 40 | 1011.1 |
| 20260502233714 | 17 | 277 | 16.1 | 29.0 | 0.00 | 0.00 | 0.00 | 39 | 1011.1 |
| 20260502233619 | 17 | 275 | 16.1 | 29.0 | 0.00 | 0.00 | 0.00 | 39 | 1011.1 |
| 20260502233507 | 17 | 279 | 17.7 | 29.0 | 0.00 | 0.00 | 0.00 | 40 | 1011.2 |
| 20260502233409 | 17 | 287 | 19.3 | 29.0 | 0.00 | 0.00 | 0.00 | 40 | 1011.1 |
| 20260502233334 | 17 | 346 | 16.1 | 29.0 | 0.00 | 0.00 | 0.00 | 39 | 1011.1 |
| 20260502233216 | 17 | 351 | 8.0 | 22.5 | 0.00 | 0.00 | 0.00 | 42 | 1011.2 |
| 20260502233141 | 17 | 335 | 4.8 | 20.9 | 0.00 | 0.00 | 0.00 | 41 | 1011.2 |
| 20260502233024 | 17 | 278 | 8.0 | 20.9 | 0.00 | 0.00 | 0.00 | 40 | 1011.2 |
| 20260502232909 | 17 | 263 | 11.3 | 20.9 | 0.00 | 0.00 | 0.00 | 41 | 1011.4 |
| 20260502232812 | 17 | 290 | 9.7 | 20.9 | 0.00 | 0.00 | 0.00 | 40 | 1011.4 |
| 20260502232720 | 17 | 296 | 9.7 | 20.9 | 0.00 | 0.00 | 0.00 | 41 | 1011.4 |
| 20260502232625 | 17 | 291 | 12.9 | 20.9 | 0.00 | 0.00 | 0.00 | 41 | 1011.3 |
| 20260502232509 | 17 | 300 | 12.9 | 20.9 | 0.00 | 0.00 | 0.00 | 43 | 1011.3 |
| 20260502232413 | 17 | 310 | 12.9 | 20.9 | 0.00 | 0.00 | 0.00 | 39 | 1011.3 |
| 20260502232319 | 17 | 242 | 12.9 | 20.9 | 0.00 | 0.00 | 0.00 | 39 | 1011.2 |
| 20260502232221 | 17 | 235 | 9.7 | 19.3 | 0.00 | 0.00 | 0.00 | 39 | 1011.4 |
| 20260502232128 | 17 | 286 | 12.9 | 19.3 | 0.00 | 0.00 | 0.00 | 42 | 1011.4 |
| 20260502232012 | 17 | 290 | 12.9 | 19.3 | 0.00 | 0.00 | 0.00 | 41 | 1011.4 |
| 20260502231917 | 17 | 298 | 12.9 | 19.3 | 0.00 | 0.00 | 0.00 | 39 | 1011.4 |
| 20260502231841 | 17 | 291 | 12.9 | 19.3 | 0.00 | 0.00 | 0.00 | 40 | 1011.4 |
| 20260502231704 | 17 | 306 | 12.9 | 20.9 | 0.00 | 0.00 | 0.00 | 43 | 1011.4 |
| 20260502231608 | 17 | 311 | 11.3 | 20.9 | 0.00 | 0.00 | 0.00 | 42 | 1011.4 |
| 20260502231513 | 17 | 272 | 11.3 | 20.9 | 0.00 | 0.00 | 0.00 | 42 | 1011.4 |
| 20260502231420 | 17 | 283 | 8.0 | 20.9 | 0.00 | 0.00 | 0.00 | 42 | 1011.4 |
| 20260502231305 | 17 | 319 | 8.0 | 24.1 | 0.00 | 0.00 | 0.00 | 41 | 1011.4 |
| 20260502231228 | 17 | 279 | 8.0 | 24.1 | 0.00 | 0.00 | 0.00 | 39 | 1011.4 |
| 20260502231104 | 17 | 250 | 12.9 | 24.1 | 0.00 | 0.00 | 0.00 | 39 | 1011.4 |
| 20260502231007 | 17 | 340 | 14.5 | 24.1 | 0.00 | 0.00 | 0.00 | 40 | 1011.4 |
| 20260502230912 | 17 | 318 | 16.1 | 24.1 | 0.00 | 0.00 | 0.00 | 42 | 1011.4 |
| 20260502230820 | 17 | 294 | 16.1 | 24.1 | 0.00 | 0.00 | 0.00 | 41 | 1011.4 |
| 20260502230705 | 17 | 294 | 14.5 | 24.1 | 0.00 | 0.00 | 0.00 | 41 | 1011.5 |
| 20260502230608 | 17 | 284 | 16.1 | 24.1 | 0.00 | 0.00 | 0.00 | 40 | 1011.4 |
| 20260502230511 | 17 | 284 | 12.9 | 24.1 | 0.00 | 0.00 | 0.00 | 40 | 1011.5 |
| 20260502230414 | 17 | 212 | 8.0 | 19.3 | 0.00 | 0.00 | 0.00 | 40 | 1011.6 |
| 20260502230316 | 17 | 279 | 3.2 | 11.3 | 0.00 | 0.00 | 0.00 | 42 | 1011.6 |
| 20260502230222 | 17 | 279 | 3.2 | 14.5 | 0.00 | 0.00 | 0.00 | 41 | 1011.6 |
| 20260502230108 | 17 | 279 | 1.6 | 14.5 | 0.00 | 0.00 | 0.00 | 41 | 1011.6 |
| 20260502230031 | 17 | 279 | 3.2 | 14.5 | 0.00 | 0.00 | 0.00 | 41 | 1011.6 |
| 20260502225906 | 17 | 280 | 4.8 | 14.5 | 0.00 | 0.00 | 0.00 | 41 | 1011.6 |
| 20260502225809 | 17 | 306 | 6.4 | 14.5 | 0.00 | 0.00 | 0.00 | 41 | 1011.7 |
| 20260502225714 | 17 | 273 | 8.0 | 14.5 | 0.00 | 0.00 | 0.00 | 41 | 1011.7 |
| 20260502225617 | 17 | 295 | 8.0 | 14.5 | 0.00 | 0.00 | 0.00 | 41 | 1011.8 |
| 20260502225506 | 17 | 278 | 8.0 | 14.5 | 0.00 | 0.00 | 0.00 | 40 | 1011.8 |
| 20260502225430 | 17 | 273 | 8.0 | 14.5 | 0.00 | 0.00 | 0.00 | 40 | 1011.7 |
| 20260502225306 | 17 | 285 | 6.4 | 12.9 | 0.00 | 0.00 | 0.00 | 44 | 1011.7 |
| 20260502225212 | 17 | 294 | 8.0 | 16.1 | 0.00 | 0.00 | 0.00 | 42 | 1011.7 |
| 20260502225114 | 17 | 301 | 8.0 | 17.7 | 0.00 | 0.00 | 0.00 | 40 | 1011.7 |
| 20260502225018 | 17 | 292 | 6.4 | 17.7 | 0.00 | 0.00 | 0.00 | 41 | 1011.7 |
| 20260502224926 | 17 | 292 | 8.0 | 17.7 | 0.00 | 0.00 | 0.00 | 40 | 1011.7 |
| 20260502224827 | 17 | 331 | 8.0 | 17.7 | 0.00 | 0.00 | 0.00 | 40 | 1011.7 |
| 20260502224752 | 17 | 286 | 8.0 | 17.7 | 0.00 | 0.00 | 0.00 | 40 | 1011.6 |
| 20260502224607 | 17 | 287 | 8.0 | 17.7 | 0.00 | 0.00 | 0.00 | 42 | 1011.7 |
| 20260502224512 | 17 | 300 | 9.7 | 17.7 | 0.00 | 0.00 | 0.00 | 40 | 1011.7 |
| 20260502224416 | 17 | 282 | 9.7 | 17.7 | 0.00 | 0.00 | 0.00 | 40 | 1011.7 |
| 20260502224321 | 17 | 313 | 9.7 | 17.7 | 0.00 | 0.00 | 0.00 | 41 | 1011.7 |
| 20260502224249 | 17 | 309 | 11.3 | 17.7 | 0.00 | 0.00 | 0.00 | 40 | 1011.8 |
| 20260502224105 | 17 | 288 | 8.0 | 16.1 | 0.00 | 0.00 | 0.00 | 40 | 1011.9 |
| 20260502224006 | 17 | 317 | 6.4 | 16.1 | 0.00 | 0.00 | 0.00 | 41 | 1011.8 |
| 20260502223931 | 17 | 279 | 4.8 | 16.1 | 0.00 | 0.00 | 0.00 | 41 | 1011.8 |
| 20260502223810 | 17 | 305 | 4.8 | 24.1 | 0.00 | 0.00 | 0.00 | 41 | 1011.9 |
| 20260502223712 | 17 | 331 | 6.4 | 25.7 | 0.00 | 0.00 | 0.00 | 40 | 1011.8 |
| 20260502223636 | 17 | 342 | 8.0 | 25.7 | 0.00 | 0.00 | 0.00 | 40 | 1011.8 |
| 20260502223517 | 17 | 350 | 9.7 | 25.7 | 0.00 | 0.00 | 0.00 | 40 | 1011.8 |
| 20260502223404 | 17 | 285 | 9.7 | 25.7 | 0.00 | 0.00 | 0.00 | 40 | 1011.8 |
| 20260502223307 | 17 | 301 | 9.7 | 25.7 | 0.00 | 0.00 | 0.00 | 41 | 1011.9 |
| 20260502223212 | 17 | 335 | 11.3 | 25.7 | 0.00 | 0.00 | 0.00 | 39 | 1011.8 |
| 20260502223115 | 17 | 317 | 14.5 | 25.7 | 0.00 | 0.00 | 0.00 | 41 | 1011.9 |
| 20260502223020 | 17 | 299 | 16.1 | 25.7 | 0.00 | 0.00 | 0.00 | 40 | 1011.8 |
| 20260502222944 | 17 | 290 | 16.1 | 25.7 | 0.00 | 0.00 | 0.00 | 39 | 1011.8 |
| 20260502222807 | 17 | 293 | 14.5 | 24.1 | 0.00 | 0.00 | 0.00 | 40 | 1011.9 |
| 20260502222712 | 17 | 316 | 12.9 | 24.1 | 0.00 | 0.00 | 0.00 | 40 | 1011.9 |
| 20260502222616 | 17 | 313 | 11.3 | 24.1 | 0.00 | 0.00 | 0.00 | 40 | 1011.9 |
| 20260502222541 | 17 | 297 | 14.5 | 24.1 | 0.00 | 0.00 | 0.00 | 40 | 1011.9 |
| 20260502222404 | 17 | 294 | 17.7 | 24.1 | 0.00 | 0.00 | 0.00 | 38 | 1011.8 |
| 20260502222328 | 17 | 306 | 16.1 | 24.1 | 0.00 | 0.00 | 0.00 | 39 | 1011.9 |
| 20260502222205 | 17 | 294 | 17.7 | 24.1 | 0.00 | 0.00 | 0.00 | 40 | 1011.9 |
| 20260502222112 | 17 | 309 | 17.7 | 24.1 | 0.00 | 0.00 | 0.00 | 40 | 1011.9 |
| 20260502222016 | 17 | 296 | 16.1 | 20.9 | 0.00 | 0.00 | 0.00 | 39 | 1011.9 |
| 20260502221920 | 17 | 290 | 12.9 | 20.9 | 0.00 | 0.00 | 0.00 | 40 | 1011.9 |
| 20260502221823 | 17 | 291 | 11.3 | 19.3 | 0.00 | 0.00 | 0.00 | 40 | 1011.9 |
| 20260502221747 | 17 | 303 | 12.9 | 19.3 | 0.00 | 0.00 | 0.00 | 39 | 1011.9 |
| 20260502221603 | 17 | 273 | 12.9 | 24.1 | 0.00 | 0.00 | 0.00 | 40 | 1011.9 |
| 20260502221511 | 17 | 278 | 14.5 | 24.1 | 0.00 | 0.00 | 0.00 | 39 | 1011.8 |
| 20260502221436 | 17 | 283 | 12.9 | 24.1 | 0.00 | 0.00 | 0.00 | 39 | 1011.8 |
| 20260502221319 | 17 | 304 | 11.3 | 24.1 | 0.00 | 0.00 | 0.00 | 40 | 1011.9 |
| 20260502221204 | 17 | 306 | 12.9 | 24.1 | 0.00 | 0.00 | 0.00 | 40 | 1011.8 |
| 20260502221127 | 17 | 292 | 9.7 | 24.1 | 0.00 | 0.00 | 0.00 | 41 | 1011.9 |
| 20260502221030 | 17 | 336 | 11.3 | 24.1 | 0.00 | 0.00 | 0.00 | 40 | 1011.9 |
| 20260502220914 | 17 | 310 | 14.5 | 24.1 | 0.00 | 0.00 | 0.00 | 39 | 1011.9 |
| 20260502220819 | 17 | 298 | 17.7 | 24.1 | 0.00 | 0.00 | 0.00 | 38 | 1011.9 |
| 20260502220727 | 17 | 296 | 17.7 | 24.1 | 0.00 | 0.00 | 0.00 | 39 | 1011.9 |
| 20260502220629 | 17 | 288 | 17.7 | 22.5 | 0.00 | 0.00 | 0.00 | 38 | 1011.9 |
| 20260502220507 | 17 | 286 | 16.1 | 22.5 | 0.00 | 0.00 | 0.00 | 40 | 1011.9 |
| 20260502220409 | 17 | 309 | 14.5 | 22.5 | 0.00 | 0.00 | 0.00 | 39 | 1011.9 |
| 20260502220314 | 17 | 273 | 16.1 | 22.5 | 0.00 | 0.00 | 0.00 | 40 | 1011.9 |
| 20260502220217 | 18 | 292 | 16.1 | 22.5 | 0.00 | 0.00 | 0.00 | 39 | 1012.0 |
| 20260502220104 | 18 | 302 | 12.9 | 20.9 | 0.00 | 0.00 | 0.00 | 41 | 1012.0 |
| 20260502220008 | 18 | 269 | 12.9 | 20.9 | 0.00 | 0.00 | 0.00 | 39 | 1012.0 |
| 20260502215932 | 18 | 292 | 9.7 | 20.9 | 0.00 | 0.00 | 0.00 | 40 | 1012.0 |
| 20260502215817 | 18 | 291 | 11.3 | 20.9 | 0.00 | 0.00 | 0.00 | 39 | 1012.0 |
| 20260502215719 | 18 | 294 | 14.5 | 20.9 | 0.00 | 0.00 | 0.00 | 40 | 1012.0 |
| 20260502215622 | 18 | 269 | 14.5 | 20.9 | 0.00 | 0.00 | 0.00 | 39 | 1012.0 |
| 20260502215509 | 18 | 294 | 12.9 | 20.9 | 0.00 | 0.00 | 0.00 | 39 | 1011.9 |
| 20260502215433 | 18 | 304 | 12.9 | 20.9 | 0.00 | 0.00 | 0.00 | 39 | 1012.1 |
| 20260502215336 | 18 | 298 | 11.3 | 22.5 | 0.00 | 0.00 | 0.00 | 41 | 1012.0 |
| 20260502215240 | 18 | 318 | 11.3 | 22.5 | 0.00 | 0.00 | 0.00 | 40 | 1012.0 |
| 20260502215104 | 18 | 279 | 11.3 | 22.5 | 0.00 | 0.00 | 0.00 | 39 | 1012.1 |
| 20260502215007 | 18 | 308 | 11.3 | 22.5 | 0.00 | 0.00 | 0.00 | 41 | 1012.1 |
| 20260502214912 | 18 | 319 | 12.9 | 22.5 | 0.00 | 0.00 | 0.00 | 41 | 1012.1 |
| 20260502214816 | 18 | 301 | 12.9 | 22.5 | 0.00 | 0.00 | 0.00 | 41 | 1012.0 |
| 20260502214725 | 18 | 312 | 14.5 | 22.5 | 0.00 | 0.00 | 0.00 | 39 | 1012.1 |
| 20260502214650 | 18 | 305 | 16.1 | 22.5 | 0.00 | 0.00 | 0.00 | 39 | 1012.0 |
| 20260502214505 | 18 | 295 | 17.7 | 22.5 | 0.00 | 0.00 | 0.00 | 40 | 1012.1 |
| 20260502214408 | 18 | 294 | 14.5 | 22.5 | 0.00 | 0.00 | 0.00 | 41 | 1012.1 |
| 20260502214331 | 18 | 286 | 12.9 | 25.7 | 0.00 | 0.00 | 0.00 | 41 | 1012.1 |
| 20260502214213 | 18 | 285 | 14.5 | 25.7 | 0.00 | 0.00 | 0.00 | 41 | 1012.1 |
| 20260502214117 | 18 | 318 | 16.1 | 29.0 | 0.00 | 0.00 | 0.00 | 40 | 1012.2 |
| 20260502214025 | 18 | 312 | 14.5 | 29.0 | 0.00 | 0.00 | 0.00 | 41 | 1012.2 |
| 20260502213949 | 18 | 306 | 14.5 | 29.0 | 0.00 | 0.00 | 0.00 | 39 | 1012.1 |
| 20260502213805 | 18 | 297 | 14.5 | 29.0 | 0.00 | 0.00 | 0.00 | 42 | 1012.1 |
| 20260502213710 | 18 | 302 | 14.5 | 29.0 | 0.00 | 0.00 | 0.00 | 41 | 1012.2 |
| 20260502213614 | 17 | 279 | 16.1 | 30.6 | 0.00 | 0.00 | 0.00 | 39 | 1012.2 |
| 20260502213517 | 17 | 302 | 16.1 | 30.6 | 0.00 | 0.00 | 0.00 | 41 | 1012.2 |
| 20260502213426 | 17 | 333 | 19.3 | 30.6 | 0.00 | 0.00 | 0.00 | 39 | 1012.3 |
| 20260502213309 | 17 | 305 | 22.5 | 30.6 | 0.00 | 0.00 | 0.00 | 40 | 1012.3 |
| 20260502213234 | 17 | 295 | 20.9 | 30.6 | 0.00 | 0.00 | 0.00 | 42 | 1012.3 |
| 20260502213117 | 17 | 284 | 19.3 | 30.6 | 0.00 | 0.00 | 0.00 | 39 | 1012.3 |
| 20260502213022 | 17 | 281 | 17.7 | 30.6 | 0.00 | 0.00 | 0.00 | 38 | 1012.3 |
| 20260502212926 | 17 | 303 | 19.3 | 30.6 | 0.00 | 0.00 | 0.00 | 38 | 1012.3 |
| 20260502212803 | 17 | 300 | 19.3 | 30.6 | 0.00 | 0.00 | 0.00 | 39 | 1012.3 |
| 20260502212712 | 18 | 296 | 14.5 | 27.4 | 0.00 | 0.00 | 0.00 | 39 | 1012.4 |
| 20260502212617 | 17 | 286 | 14.5 | 27.4 | 0.00 | 0.00 | 0.00 | 38 | 1012.5 |
| 20260502212520 | 18 | 293 | 14.5 | 27.4 | 0.00 | 0.00 | 0.00 | 39 | 1012.4 |
| 20260502212424 | 18 | 277 | 12.9 | 27.4 | 0.00 | 0.00 | 0.00 | 38 | 1012.5 |
| 20260502212348 | 18 | 280 | 16.1 | 27.4 | 0.00 | 0.00 | 0.00 | 38 | 1012.5 |
| 20260502212204 | 18 | 237 | 14.5 | 27.4 | 0.00 | 0.00 | 0.00 | 39 | 1012.6 |
| 20260502212113 | 18 | 251 | 9.7 | 17.7 | 0.00 | 0.00 | 0.00 | 41 | 1012.5 |
| 20260502212017 | 17 | 259 | 6.4 | 17.7 | 0.00 | 0.00 | 0.00 | 40 | 1012.5 |
| 20260502211921 | 17 | 290 | 6.4 | 17.7 | 0.00 | 0.00 | 0.00 | 42 | 1012.5 |
| 20260502211825 | 17 | 288 | 6.4 | 19.3 | 0.00 | 0.00 | 0.00 | 40 | 1012.5 |
| 20260502211749 | 17 | 321 | 8.0 | 19.3 | 0.00 | 0.00 | 0.00 | 41 | 1012.6 |
| 20260502211603 | 17 | 295 | 8.0 | 19.3 | 0.00 | 0.00 | 0.00 | 39 | 1012.6 |
| 20260502211507 | 17 | 300 | 11.3 | 22.5 | 0.00 | 0.00 | 0.00 | 39 | 1012.6 |
| 20260502211415 | 17 | 292 | 14.5 | 22.5 | 0.00 | 0.00 | 0.00 | 41 | 1012.6 |
| 20260502211319 | 17 | 290 | 14.5 | 32.2 | 0.00 | 0.00 | 0.00 | 40 | 1012.6 |
| 20260502211221 | 17 | 284 | 14.5 | 32.2 | 0.00 | 0.00 | 0.00 | 40 | 1012.7 |
| 20260502211106 | 17 | 281 | 14.5 | 32.2 | 0.00 | 0.00 | 0.00 | 39 | 1012.7 |
| 20260502211031 | 17 | 294 | 14.5 | 32.2 | 0.00 | 0.00 | 0.00 | 40 | 1012.7 |
| 20260502210912 | 17 | 280 | 12.9 | 32.2 | 0.00 | 0.00 | 0.00 | 40 | 1012.7 |
| 20260502210820 | 17 | 297 | 14.5 | 32.2 | 0.00 | 0.00 | 0.00 | 38 | 1012.8 |
| 20260502210724 | 17 | 271 | 17.7 | 32.2 | 0.00 | 0.00 | 0.00 | 38 | 1012.9 |
| 20260502210649 | 17 | 267 | 22.5 | 32.2 | 0.00 | 0.00 | 0.00 | 39 | 1012.9 |
| 20260502210504 | 17 | 279 | 22.5 | 30.6 | 0.00 | 0.00 | 0.00 | 39 | 1012.9 |
| 20260502210428 | 17 | 288 | 20.9 | 30.6 | 0.00 | 0.00 | 0.00 | 40 | 1012.8 |
| 20260502210305 | 18 | 349 | 17.7 | 25.7 | 0.00 | 0.00 | 0.00 | 40 | 1012.8 |
| 20260502210210 | 17 | 294 | 12.9 | 22.5 | 0.00 | 0.00 | 0.00 | 40 | 1012.9 |
| 20260502210119 | 17 | 304 | 11.3 | 20.9 | 0.00 | 0.00 | 0.00 | 43 | 1012.8 |
| 20260502210004 | 17 | 301 | 11.3 | 20.9 | 0.00 | 0.00 | 0.00 | 40 | 1012.9 |
| 20260502205928 | 17 | 348 | 9.7 | 20.9 | 0.00 | 0.00 | 0.00 | 40 | 1012.9 |
| 20260502205805 | 17 | 313 | 9.7 | 20.9 | 0.00 | 0.00 | 0.00 | 40 | 1013.0 |
| 20260502205711 | 17 | 23 | 9.7 | 22.5 | 0.00 | 0.00 | 0.00 | 41 | 1013.0 |
| 20260502205635 | 17 | 327 | 9.7 | 24.1 | 0.00 | 0.00 | 0.00 | 39 | 1012.8 |
| 20260502205522 | 17 | 311 | 12.9 | 32.2 | 0.00 | 0.00 | 0.00 | 39 | 1013.0 |
| 20260502205426 | 17 | 275 | 16.1 | 32.2 | 0.00 | 0.00 | 0.00 | 38 | 1013.0 |
| 20260502205349 | 17 | 289 | 16.1 | 32.2 | 0.00 | 0.00 | 0.00 | 40 | 1013.0 |
| 20260502205205 | 17 | 284 | 16.1 | 32.2 | 0.00 | 0.00 | 0.00 | 40 | 1013.0 |
| 20260502205129 | 17 | 308 | 16.1 | 32.2 | 0.00 | 0.00 | 0.00 | 40 | 1013.0 |
| 20260502205031 | 17 | 300 | 16.1 | 32.2 | 0.00 | 0.00 | 0.00 | 41 | 1013.0 |
| 20260502204914 | 17 | 268 | 17.7 | 32.2 | 0.00 | 0.00 | 0.00 | 38 | 1013.1 |
| 20260502204818 | 17 | 302 | 20.9 | 32.2 | 0.00 | 0.00 | 0.00 | 39 | 1013.2 |
| 20260502204726 | 17 | 252 | 20.9 | 32.2 | 0.00 | 0.00 | 0.00 | 38 | 1013.1 |
| 20260502204603 | 17 | 295 | 17.7 | 25.7 | 0.00 | 0.00 | 0.00 | 37 | 1013.2 |
| 20260502204528 | 17 | 293 | 17.7 | 27.4 | 0.00 | 0.00 | 0.00 | 41 | 1013.3 |
| 20260502204404 | 17 | 321 | 16.1 | 29.0 | 0.00 | 0.00 | 0.00 | 40 | 1013.3 |
| 20260502204309 | 17 | 319 | 17.7 | 29.0 | 0.00 | 0.00 | 0.00 | 38 | 1013.3 |
| 20260502204213 | 17 | 298 | 17.7 | 29.0 | 0.00 | 0.00 | 0.00 | 38 | 1013.2 |
| 20260502204121 | 17 | 311 | 14.5 | 29.0 | 0.00 | 0.00 | 0.00 | 39 | 1013.3 |
| 20260502204004 | 17 | 315 | 14.5 | 29.0 | 0.00 | 0.00 | 0.00 | 41 | 1013.4 |
| 20260502203928 | 17 | 324 | 16.1 | 29.0 | 0.00 | 0.00 | 0.00 | 38 | 1013.4 |
| 20260502203805 | 17 | 279 | 22.5 | 29.0 | 0.00 | 0.00 | 0.00 | 40 | 1013.5 |
| 20260502203708 | 18 | 294 | 22.5 | 29.0 | 0.00 | 0.00 | 0.00 | 38 | 1013.4 |
| 20260502203612 | 18 | 269 | 16.1 | 29.0 | 0.00 | 0.00 | 0.00 | 40 | 1013.5 |
| 20260502203519 | 18 | 327 | 12.9 | 24.1 | 0.00 | 0.00 | 0.00 | 41 | 1013.5 |
| 20260502203422 | 17 | 302 | 12.9 | 25.7 | 0.00 | 0.00 | 0.00 | 39 | 1013.5 |
| 20260502203306 | 17 | 315 | 16.1 | 30.6 | 0.00 | 0.00 | 0.00 | 38 | 1013.6 |
| 20260502203210 | 17 | 303 | 14.5 | 30.6 | 0.00 | 0.00 | 0.00 | 40 | 1013.5 |
| 20260502203115 | 17 | 254 | 9.7 | 30.6 | 0.00 | 0.00 | 0.00 | 43 | 1013.6 |
| 20260502203039 | 17 | 249 | 11.3 | 30.6 | 0.00 | 0.00 | 0.00 | 41 | 1013.6 |
| 20260502202906 | 17 | 271 | 12.9 | 30.6 | 0.00 | 0.00 | 0.00 | 40 | 1013.6 |
| 20260502202811 | 17 | 264 | 14.5 | 30.6 | 0.00 | 0.00 | 0.00 | 38 | 1013.6 |
| 20260502202736 | 17 | 185 | 16.1 | 30.6 | 0.00 | 0.00 | 0.00 | 37 | 1013.6 |
| 20260502202621 | 17 | 232 | 19.3 | 30.6 | 0.00 | 0.00 | 0.00 | 38 | 1013.7 |
| 20260502202505 | 17 | 277 | 16.1 | 30.6 | 0.00 | 0.00 | 0.00 | 38 | 1013.8 |
| 20260502202429 | 17 | 232 | 14.5 | 24.1 | 0.00 | 0.00 | 0.00 | 40 | 1013.7 |
| 20260502202312 | 17 | 259 | 16.1 | 24.1 | 0.00 | 0.00 | 0.00 | 40 | 1013.7 |
| 20260502202221 | 17 | 295 | 17.7 | 24.1 | 0.00 | 0.00 | 0.00 | 40 | 1013.9 |
| 20260502202144 | 17 | 271 | 17.7 | 24.1 | 0.00 | 0.00 | 0.00 | 40 | 1013.8 |
| 20260502202006 | 17 | 297 | 16.1 | 24.1 | 0.00 | 0.00 | 0.00 | 40 | 1014.0 |
| 20260502201910 | 17 | 296 | 14.5 | 22.5 | 0.00 | 0.00 | 0.00 | 39 | 1013.9 |
| 20260502201814 | 17 | 321 | 12.9 | 33.8 | 0.00 | 0.00 | 0.00 | 39 | 1014.0 |
| 20260502201718 | 17 | 295 | 11.3 | 33.8 | 0.00 | 0.00 | 0.00 | 39 | 1014.0 |
| 20260502201626 | 17 | 311 | 14.5 | 33.8 | 0.00 | 0.00 | 0.00 | 40 | 1014.0 |
| 20260502201503 | 17 | 279 | 16.1 | 33.8 | 0.00 | 0.00 | 0.00 | 40 | 1014.0 |
| 20260502201426 | 17 | 297 | 14.5 | 33.8 | 0.00 | 0.00 | 0.00 | 41 | 1014.0 |
| 20260502201303 | 17 | 309 | 12.9 | 33.8 | 0.00 | 0.00 | 0.00 | 42 | 1014.0 |
| 20260502201206 | 17 | 290 | 14.5 | 33.8 | 0.00 | 0.00 | 0.00 | 40 | 1014.0 |
| 20260502201129 | 17 | 239 | 19.3 | 33.8 | 0.00 | 0.00 | 0.00 | 39 | 1014.0 |
| 20260502201012 | 17 | 254 | 17.7 | 33.8 | 0.00 | 0.00 | 0.00 | 39 | 1014.0 |
| 20260502200920 | 17 | 293 | 11.3 | 30.6 | 0.00 | 0.00 | 0.00 | 39 | 1014.1 |
| 20260502200803 | 16 | 307 | 8.0 | 29.0 | 0.00 | 0.00 | 0.00 | 40 | 1014.1 |
| 20260502200727 | 16 | 283 | 12.9 | 29.0 | 0.00 | 0.00 | 0.00 | 38 | 1014.2 |
| 20260502200630 | 16 | 265 | 17.7 | 30.6 | 0.00 | 0.00 | 0.00 | 38 | 1014.2 |
| 20260502200513 | 16 | 285 | 19.3 | 30.6 | 0.00 | 0.00 | 0.00 | 38 | 1014.2 |
| 20260502200416 | 17 | 283 | 20.9 | 32.2 | 0.00 | 0.00 | 0.00 | 38 | 1014.2 |
| 20260502200304 | 17 | 273 | 20.9 | 32.2 | 0.00 | 0.00 | 0.00 | 39 | 1014.3 |
| 20260502200228 | 17 | 274 | 20.9 | 32.2 | 0.00 | 0.00 | 0.00 | 39 | 1014.3 |
| 20260502200130 | 17 | 286 | 20.9 | 32.2 | 0.00 | 0.00 | 0.00 | 41 | 1014.2 |
| 20260502200012 | 17 | 296 | 20.9 | 32.2 | 0.00 | 0.00 | 0.00 | 38 | 1014.3 |
| 20260502195916 | 17 | 273 | 22.5 | 32.2 | 0.00 | 0.00 | 0.00 | 39 | 1014.3 |
| 20260502195820 | 17 | 282 | 24.1 | 32.2 | 0.00 | 0.00 | 0.00 | 39 | 1014.3 |
| 20260502195743 | 17 | 279 | 24.1 | 32.2 | 0.00 | 0.00 | 0.00 | 42 | 1014.3 |
| 20260502195606 | 17 | 281 | 12.9 | 32.2 | 0.00 | 0.00 | 0.00 | 39 | 1014.2 |
| 20260502195515 | 17 | 304 | 9.7 | 32.2 | 0.00 | 0.00 | 0.00 | 40 | 1014.4 |
| 20260502195439 | 17 | 243 | 11.3 | 32.2 | 0.00 | 0.00 | 0.00 | 38 | 1014.3 |
| 20260502195342 | 17 | 278 | 14.5 | 32.2 | 0.00 | 0.00 | 0.00 | 39 | 1014.4 |
| 20260502195225 | 17 | 282 | 17.7 | 32.2 | 0.00 | 0.00 | 0.00 | 40 | 1014.4 |
| 20260502195108 | 17 | 277 | 17.7 | 32.2 | 0.00 | 0.00 | 0.00 | 43 | 1014.4 |
| 20260502195010 | 17 | 269 | 12.9 | 17.7 | 0.00 | 0.00 | 0.00 | 41 | 1014.4 |
| 20260502194914 | 16 | 270 | 12.9 | 17.7 | 0.00 | 0.00 | 0.00 | 39 | 1014.4 |
| 20260502194838 | 16 | 232 | 12.9 | 19.3 | 0.00 | 0.00 | 0.00 | 43 | 1014.4 |
| 20260502194706 | 16 | 270 | 14.5 | 19.3 | 0.00 | 0.00 | 0.00 | 41 | 1014.4 |
| 20260502194611 | 16 | 213 | 12.9 | 19.3 | 0.00 | 0.00 | 0.00 | 41 | 1014.4 |
| 20260502194513 | 16 | 290 | 11.3 | 17.7 | 0.00 | 0.00 | 0.00 | 43 | 1014.5 |
| 20260502194437 | 16 | 304 | 12.9 | 20.9 | 0.00 | 0.00 | 0.00 | 42 | 1014.4 |
| 20260502194320 | 16 | 234 | 12.9 | 22.5 | 0.00 | 0.00 | 0.00 | 38 | 1014.5 |
| 20260502194204 | 16 | 259 | 14.5 | 22.5 | 0.00 | 0.00 | 0.00 | 39 | 1014.6 |
| 20260502194132 | 16 | 239 | 12.9 | 22.5 | 0.00 | 0.00 | 0.00 | 40 | 1014.6 |
| 20260502194015 | 16 | 247 | 9.7 | 22.5 | 0.00 | 0.00 | 0.00 | 41 | 1014.6 |
| 20260502193919 | 16 | 215 | 6.4 | 24.1 | 0.00 | 0.00 | 0.00 | 44 | 1014.5 |
| 20260502193823 | 16 | 261 | 8.0 | 24.1 | 0.00 | 0.00 | 0.00 | 42 | 1014.7 |
| 20260502193706 | 16 | 262 | 14.5 | 41.8 | 0.00 | 0.00 | 0.00 | 39 | 1014.6 |
| 20260502193630 | 16 | 259 | 17.7 | 41.8 | 0.00 | 0.00 | 0.00 | 40 | 1014.6 |
| 20260502193513 | 16 | 282 | 16.1 | 41.8 | 0.00 | 0.00 | 0.00 | 40 | 1014.6 |
| 20260502193440 | 16 | 293 | 14.5 | 41.8 | 0.00 | 0.00 | 0.00 | 40 | 1014.7 |
| 20260502193342 | 16 | 302 | 16.1 | 41.8 | 0.00 | 0.00 | 0.00 | 42 | 1014.7 |
| 20260502193225 | 16 | 324 | 16.1 | 41.8 | 0.00 | 0.00 | 0.00 | 41 | 1014.7 |
| 20260502193107 | 16 | 313 | 19.3 | 41.8 | 0.00 | 0.00 | 0.00 | 43 | 1014.7 |
| 20260502193012 | 16 | 290 | 22.5 | 41.8 | 0.00 | 0.00 | 0.00 | 40 | 1014.8 |
| 20260502192915 | 16 | 314 | 20.9 | 41.8 | 0.00 | 0.00 | 0.00 | 39 | 1014.7 |
| 20260502192819 | 16 | 236 | 17.7 | 29.0 | 0.00 | 0.00 | 0.00 | 40 | 1014.6 |
| 20260502192728 | 16 | 196 | 14.5 | 25.7 | 0.00 | 0.00 | 0.00 | 39 | 1014.7 |
| 20260502192605 | 16 | 229 | 11.3 | 25.7 | 0.00 | 0.00 | 0.00 | 40 | 1014.8 |
| 20260502192508 | 16 | 238 | 12.9 | 25.7 | 0.00 | 0.00 | 0.00 | 38 | 1014.9 |
| 20260502192411 | 16 | 229 | 17.7 | 25.7 | 0.00 | 0.00 | 0.00 | 39 | 1014.9 |
| 20260502192315 | 16 | 252 | 19.3 | 25.7 | 0.00 | 0.00 | 0.00 | 39 | 1014.9 |
| 20260502192239 | 16 | 291 | 20.9 | 25.7 | 0.00 | 0.00 | 0.00 | 42 | 1014.9 |
| 20260502192104 | 16 | 275 | 16.1 | 25.7 | 0.00 | 0.00 | 0.00 | 40 | 1014.9 |
| 20260502192007 | 16 | 306 | 11.3 | 22.5 | 0.00 | 0.00 | 0.00 | 41 | 1015.0 |
| 20260502191911 | 16 | 309 | 11.3 | 22.5 | 0.00 | 0.00 | 0.00 | 41 | 1015.0 |
| 20260502191813 | 16 | 284 | 14.5 | 22.5 | 0.00 | 0.00 | 0.00 | 40 | 1015.1 |
| 20260502191717 | 16 | 286 | 17.7 | 22.5 | 0.00 | 0.00 | 0.00 | 39 | 1015.1 |
| 20260502191620 | 16 | 302 | 17.7 | 22.5 | 0.00 | 0.00 | 0.00 | 40 | 1015.1 |
| 20260502191543 | 16 | 292 | 17.7 | 27.4 | 0.00 | 0.00 | 0.00 | 40 | 1015.1 |
| 20260502191429 | 16 | 275 | 14.5 | 27.4 | 0.00 | 0.00 | 0.00 | 42 | 1015.0 |
| 20260502191304 | 16 | 289 | 11.3 | 27.4 | 0.00 | 0.00 | 0.00 | 40 | 1015.1 |
| 20260502191228 | 16 | 250 | 11.3 | 27.4 | 0.00 | 0.00 | 0.00 | 40 | 1015.1 |
| 20260502191104 | 16 | 317 | 11.3 | 27.4 | 0.00 | 0.00 | 0.00 | 41 | 1015.1 |
| 20260502191006 | 16 | 336 | 11.3 | 27.4 | 0.00 | 0.00 | 0.00 | 44 | 1015.2 |
| 20260502190930 | 16 | 286 | 16.1 | 27.4 | 0.00 | 0.00 | 0.00 | 41 | 1015.2 |
| 20260502190811 | 16 | 329 | 17.7 | 27.4 | 0.00 | 0.00 | 0.00 | 45 | 1015.3 |
| 20260502190719 | 16 | 309 | 16.1 | 27.4 | 0.00 | 0.00 | 0.00 | 40 | 1015.2 |
| 20260502190641 | 16 | 237 | 11.3 | 24.1 | 0.00 | 0.00 | 0.00 | 41 | 1015.3 |
| 20260502190524 | 16 | 267 | 12.9 | 24.1 | 0.00 | 0.00 | 0.00 | 39 | 1015.3 |
| 20260502190406 | 16 | 276 | 14.5 | 24.1 | 0.00 | 0.00 | 0.00 | 41 | 1015.3 |
| 20260502190330 | 15 | 288 | 12.9 | 24.1 | 0.00 | 0.00 | 0.00 | 40 | 1015.4 |
| 20260502190232 | 15 | 239 | 12.9 | 24.1 | 0.00 | 0.00 | 0.00 | 40 | 1015.3 |
| 20260502190114 | 15 | 256 | 12.9 | 24.1 | 0.00 | 0.00 | 0.00 | 41 | 1015.4 |
| 20260502190017 | 15 | 247 | 14.5 | 24.1 | 0.00 | 0.00 | 0.00 | 40 | 1015.4 |
| 20260502185926 | 15 | 272 | 16.1 | 24.1 | 0.00 | 0.00 | 0.00 | 41 | 1015.5 |
| 20260502185849 | 15 | 277 | 17.7 | 24.1 | 0.00 | 0.00 | 0.00 | 42 | 1015.4 |
| 20260502185704 | 15 | 312 | 12.9 | 22.5 | 0.00 | 0.00 | 0.00 | 41 | 1015.5 |
| 20260502185607 | 15 | 309 | 11.3 | 22.5 | 0.00 | 0.00 | 0.00 | 41 | 1015.5 |
| 20260502185510 | 15 | 266 | 12.9 | 22.5 | 0.00 | 0.00 | 0.00 | 40 | 1015.5 |
| 20260502185413 | 15 | 303 | 14.5 | 22.5 | 0.00 | 0.00 | 0.00 | 42 | 1015.5 |
| 20260502185319 | 15 | 306 | 16.1 | 24.1 | 0.00 | 0.00 | 0.00 | 40 | 1015.5 |
| 20260502185222 | 16 | 247 | 14.5 | 25.7 | 0.00 | 0.00 | 0.00 | 41 | 1015.5 |
| 20260502185126 | 16 | 243 | 8.0 | 25.7 | 0.00 | 0.00 | 0.00 | 43 | 1015.6 |
| 20260502185008 | 16 | 276 | 9.7 | 25.7 | 0.00 | 0.00 | 0.00 | 43 | 1015.6 |
| 20260502184911 | 15 | 251 | 14.5 | 25.7 | 0.00 | 0.00 | 0.00 | 40 | 1015.6 |
| 20260502184814 | 15 | 269 | 16.1 | 25.7 | 0.00 | 0.00 | 0.00 | 41 | 1015.6 |
| 20260502184717 | 15 | 282 | 16.1 | 25.7 | 0.00 | 0.00 | 0.00 | 42 | 1015.6 |
| 20260502184604 | 16 | 294 | 17.7 | 25.7 | 0.00 | 0.00 | 0.00 | 41 | 1015.7 |
| 20260502184527 | 16 | 300 | 16.1 | 25.7 | 0.00 | 0.00 | 0.00 | 41 | 1015.7 |
| 20260502184409 | 16 | 296 | 11.3 | 24.1 | 0.00 | 0.00 | 0.00 | 42 | 1015.6 |
| 20260502184312 | 16 | 274 | 9.7 | 24.1 | 0.00 | 0.00 | 0.00 | 41 | 1015.6 |
| 20260502184216 | 16 | 295 | 12.9 | 24.1 | 0.00 | 0.00 | 0.00 | 42 | 1015.7 |
| 20260502184118 | 16 | 290 | 14.5 | 24.1 | 0.00 | 0.00 | 0.00 | 42 | 1015.7 |
| 20260502184004 | 16 | 298 | 14.5 | 24.1 | 0.00 | 0.00 | 0.00 | 43 | 1015.8 |
| 20260502183927 | 15 | 259 | 11.3 | 24.1 | 0.00 | 0.00 | 0.00 | 41 | 1015.7 |
| 20260502183828 | 15 | 234 | 12.9 | 24.1 | 0.00 | 0.00 | 0.00 | 42 | 1015.7 |
| 20260502183704 | 15 | 262 | 14.5 | 24.1 | 0.00 | 0.00 | 0.00 | 40 | 1015.9 |
| 20260502183607 | 15 | 277 | 14.5 | 25.7 | 0.00 | 0.00 | 0.00 | 42 | 1015.8 |
| 20260502183510 | 15 | 279 | 12.9 | 29.0 | 0.00 | 0.00 | 0.00 | 44 | 1015.8 |
| 20260502183414 | 15 | 296 | 12.9 | 29.0 | 0.00 | 0.00 | 0.00 | 43 | 1015.9 |
| 20260502183340 | 15 | 286 | 16.1 | 29.0 | 0.00 | 0.00 | 0.00 | 42 | 1015.9 |
| 20260502183203 | 15 | 309 | 12.9 | 29.0 | 0.00 | 0.00 | 0.00 | 42 | 1015.9 |
| 20260502183029 | 15 | 287 | 17.7 | 29.0 | 0.00 | 0.00 | 0.00 | 39 | 1016.0 |
| 20260502182932 | 15 | 267 | 19.3 | 29.0 | 0.00 | 0.00 | 0.00 | 40 | 1015.9 |
| 20260502182814 | 15 | 269 | 20.9 | 29.0 | 0.00 | 0.00 | 0.00 | 42 | 1016.0 |
| 20260502182717 | 15 | 285 | 14.5 | 29.0 | 0.00 | 0.00 | 0.00 | 42 | 1016.0 |
| 20260502182604 | 15 | 295 | 8.0 | 25.7 | 0.00 | 0.00 | 0.00 | 42 | 1016.0 |
| 20260502182528 | 15 | 252 | 11.3 | 25.7 | 0.00 | 0.00 | 0.00 | 40 | 1015.9 |
| 20260502182451 | 15 | 254 | 12.9 | 25.7 | 0.00 | 0.00 | 0.00 | 43 | 1016.1 |
| 20260502182305 | 15 | 259 | 11.3 | 25.7 | 0.00 | 0.00 | 0.00 | 41 | 1016.1 |
| 20260502182209 | 15 | 283 | 12.9 | 25.7 | 0.00 | 0.00 | 0.00 | 41 | 1016.1 |
| 20260502182112 | 15 | 312 | 14.5 | 25.7 | 0.00 | 0.00 | 0.00 | 43 | 1016.1 |
| 20260502182036 | 15 | 293 | 17.7 | 25.7 | 0.00 | 0.00 | 0.00 | 43 | 1016.1 |
| 20260502181921 | 15 | 292 | 19.3 | 27.4 | 0.00 | 0.00 | 0.00 | 43 | 1016.1 |
| 20260502181824 | 15 | 329 | 19.3 | 29.0 | 0.00 | 0.00 | 0.00 | 41 | 1016.1 |
| 20260502181727 | 15 | 315 | 17.7 | 29.0 | 0.00 | 0.00 | 0.00 | 40 | 1016.2 |
| 20260502181629 | 15 | 294 | 14.5 | 29.0 | 0.00 | 0.00 | 0.00 | 40 | 1016.2 |
| 20260502181506 | 15 | 290 | 12.9 | 29.0 | 0.00 | 0.00 | 0.00 | 43 | 1016.2 |
| 20260502181428 | 15 | 302 | 11.3 | 29.0 | 0.00 | 0.00 | 0.00 | 43 | 1016.2 |
| 20260502181331 | 15 | 300 | 11.3 | 29.0 | 0.00 | 0.00 | 0.00 | 43 | 1016.3 |
| 20260502181233 | 15 | 286 | 17.7 | 29.0 | 0.00 | 0.00 | 0.00 | 44 | 1016.2 |
| 20260502181115 | 15 | 275 | 17.7 | 29.0 | 0.00 | 0.00 | 0.00 | 43 | 1016.2 |
| 20260502181021 | 15 | 279 | 14.5 | 29.0 | 0.00 | 0.00 | 0.00 | 43 | 1016.2 |
| 20260502180925 | 15 | 293 | 11.3 | 24.1 | 0.00 | 0.00 | 0.00 | 47 | 1016.3 |
| 20260502180827 | 15 | 279 | 11.3 | 24.1 | 0.00 | 0.00 | 0.00 | 45 | 1016.2 |
| 20260502180703 | 15 | 304 | 6.4 | 25.7 | 0.00 | 0.00 | 0.00 | 43 | 1016.2 |
| 20260502180607 | 14 | 276 | 4.8 | 25.7 | 0.00 | 0.00 | 0.00 | 46 | 1016.3 |
| 20260502180509 | 14 | 271 | 11.3 | 29.0 | 0.00 | 0.00 | 0.00 | 43 | 1016.3 |
| 20260502180432 | 14 | 270 | 17.7 | 29.0 | 0.00 | 0.00 | 0.00 | 42 | 1016.4 |
| 20260502180318 | 14 | 301 | 16.1 | 29.0 | 0.00 | 0.00 | 0.00 | 44 | 1016.4 |
| 20260502180221 | 14 | 311 | 12.9 | 29.0 | 0.00 | 0.00 | 0.00 | 41 | 1016.5 |
| 20260502180125 | 14 | 315 | 14.5 | 29.0 | 0.00 | 0.00 | 0.00 | 43 | 1016.5 |
| 20260502170513 | 13 | 302 | 12.9 | 25.7 | 0.00 | 0.00 | 0.00 | 43 | 1017.4 |
| 20260502170418 | 13 | 286 | 9.7 | 25.7 | 0.00 | 0.00 | 0.00 | 45 | 1017.4 |
| 20260502170304 | 13 | 9 | 4.8 | 20.9 | 0.00 | 0.00 | 0.00 | 44 | 1017.4 |
| 20260502170228 | 13 | 315 | 6.4 | 20.9 | 0.00 | 0.00 | 0.00 | 43 | 1017.5 |
| 20260502170105 | 13 | 288 | 8.0 | 25.7 | 0.00 | 0.00 | 0.00 | 43 | 1017.5 |
| 20260502164318 | 13 | 245 | 14.5 | 24.1 | 0.00 | 0.00 | 0.00 | 42 | 1017.7 |
| 20260502164221 | 13 | 319 | 14.5 | 25.7 | 0.00 | 0.00 | 0.00 | 43 | 1017.7 |
| 20260502164106 | 13 | 288 | 12.9 | 25.7 | 0.00 | 0.00 | 0.00 | 45 | 1017.7 |
| 20260502164030 | 13 | 307 | 9.7 | 25.7 | 0.00 | 0.00 | 0.00 | 45 | 1017.7 |
| 20260502163912 | 13 | 275 | 11.3 | 25.7 | 0.00 | 0.00 | 0.00 | 42 | 1017.8 |
| 20260502163816 | 13 | 298 | 12.9 | 25.7 | 0.00 | 0.00 | 0.00 | 43 | 1017.7 |
| 20260502163724 | 13 | 283 | 12.9 | 25.7 | 0.00 | 0.00 | 0.00 | 45 | 1017.8 |
| 20260502163649 | 13 | 332 | 14.5 | 25.7 | 0.00 | 0.00 | 0.00 | 45 | 1017.8 |
| 20260502163504 | 13 | 279 | 17.7 | 25.7 | 0.00 | 0.00 | 0.00 | 43 | 1017.7 |
| 20260502163408 | 13 | 293 | 17.7 | 25.7 | 0.00 | 0.00 | 0.00 | 43 | 1017.9 |
| 20260502163314 | 13 | 292 | 12.9 | 25.7 | 0.00 | 0.00 | 0.00 | 42 | 1017.9 |
| 20260502163217 | 13 | 275 | 16.1 | 25.7 | 0.00 | 0.00 | 0.00 | 43 | 1017.9 |
| 20260502163105 | 13 | 304 | 19.3 | 25.7 | 0.00 | 0.00 | 0.00 | 45 | 1017.9 |
| 20260502163028 | 13 | 288 | 17.7 | 24.1 | 0.00 | 0.00 | 0.00 | 45 | 1017.8 |
| 20260502162905 | 13 | 306 | 14.5 | 24.1 | 0.00 | 0.00 | 0.00 | 45 | 1017.9 |
| 20260502162809 | 13 | 298 | 12.9 | 25.7 | 0.00 | 0.00 | 0.00 | 43 | 1017.9 |
| 20260502162734 | 13 | 302 | 9.7 | 25.7 | 0.00 | 0.00 | 0.00 | 44 | 1017.9 |
| 20260502162634 | 13 | 333 | 8.0 | 25.7 | 0.00 | 0.00 | 0.00 | 44 | 1017.9 |
| 20260502162517 | 13 | 325 | 8.0 | 25.7 | 0.00 | 0.00 | 0.00 | 43 | 1018.0 |
| 20260502162442 | 13 | 335 | 9.7 | 25.7 | 0.00 | 0.00 | 0.00 | 43 | 1018.0 |
| 20260502162327 | 13 | 344 | 12.9 | 25.7 | 0.00 | 0.00 | 0.00 | 44 | 1018.0 |
| 20260502162205 | 13 | 360 | 17.7 | 25.7 | 0.00 | 0.00 | 0.00 | 43 | 1018.0 |
| 20260502162109 | 13 | 335 | 19.3 | 25.7 | 0.00 | 0.00 | 0.00 | 44 | 1018.0 |
| 20260502162014 | 13 | 311 | 19.3 | 25.7 | 0.00 | 0.00 | 0.00 | 45 | 1018.0 |
| 20260502161916 | 13 | 308 | 14.5 | 22.5 | 0.00 | 0.00 | 0.00 | 46 | 1018.0 |
| 20260502161817 | 13 | 302 | 12.9 | 20.9 | 0.00 | 0.00 | 0.00 | 44 | 1018.0 |
| 20260502161706 | 13 | 338 | 14.5 | 20.9 | 0.00 | 0.00 | 0.00 | 44 | 1018.1 |
| 20260502161629 | 13 | 315 | 12.9 | 22.5 | 0.00 | 0.00 | 0.00 | 44 | 1018.1 |
| 20260502161505 | 13 | 296 | 9.7 | 22.5 | 0.00 | 0.00 | 0.00 | 44 | 1018.1 |
| 20260502161410 | 13 | 262 | 12.9 | 22.5 | 0.00 | 0.00 | 0.00 | 44 | 1018.2 |
| 20260502161333 | 13 | 270 | 14.5 | 22.5 | 0.00 | 0.00 | 0.00 | 45 | 1018.2 |
| 20260502161217 | 13 | 300 | 12.9 | 22.5 | 0.00 | 0.00 | 0.00 | 47 | 1018.0 |
| 20260502161120 | 13 | 275 | 9.7 | 22.5 | 0.00 | 0.00 | 0.00 | 48 | 1018.2 |
| 20260502161008 | 13 | 285 | 12.9 | 22.5 | 0.00 | 0.00 | 0.00 | 46 | 1018.2 |
| 20260502160911 | 12 | 305 | 14.5 | 22.5 | 0.00 | 0.00 | 0.00 | 44 | 1018.2 |
| 20260502160815 | 12 | 330 | 14.5 | 22.5 | 0.00 | 0.00 | 0.00 | 45 | 1018.2 |
| 20260502160718 | 12 | 325 | 14.5 | 19.3 | 0.00 | 0.00 | 0.00 | 45 | 1018.2 |
| 20260502160622 | 12 | 316 | 12.9 | 24.1 | 0.00 | 0.00 | 0.00 | 46 | 1018.2 |
| 20260502160510 | 12 | 282 | 14.5 | 25.7 | 0.00 | 0.00 | 0.00 | 46 | 1018.2 |
| 20260502160434 | 12 | 274 | 12.9 | 25.7 | 0.00 | 0.00 | 0.00 | 45 | 1018.2 |
| 20260502160317 | 12 | 286 | 9.7 | 25.7 | 0.00 | 0.00 | 0.00 | 45 | 1018.3 |
| 20260502160222 | 12 | 299 | 9.7 | 25.7 | 0.00 | 0.00 | 0.00 | 46 | 1018.3 |
| 20260502160105 | 12 | 301 | 8.0 | 25.7 | 0.00 | 0.00 | 0.00 | 46 | 1018.3 |
| 20260502152313 | 12 | 292 | 16.1 | 20.9 | 0.00 | 0.00 | 0.00 | 48 | 1018.6 |
| 20260502152238 | 12 | 292 | 14.5 | 20.9 | 0.00 | 0.00 | 0.00 | 48 | 1018.6 |
| 20260502152044 | 12 | 360 | 8.0 | 19.3 | 0.00 | 0.00 | 0.00 | 49 | 1018.7 |
| 20260502151910 | 12 | 355 | 4.8 | 20.9 | 0.00 | 0.00 | 0.00 | 48 | 1018.6 |
| 20260502151815 | 12 | 345 | 4.8 | 22.5 | 0.00 | 0.00 | 0.00 | 49 | 1018.7 |
| 20260502151719 | 12 | 306 | 6.4 | 22.5 | 0.00 | 0.00 | 0.00 | 48 | 1018.7 |
| 20260502151643 | 12 | 348 | 9.7 | 22.5 | 0.00 | 0.00 | 0.00 | 50 | 1018.7 |
| 20260502151527 | 12 | 296 | 12.9 | 22.5 | 0.00 | 0.00 | 0.00 | 48 | 1018.8 |
| 20260502151404 | 12 | 307 | 11.3 | 22.5 | 0.00 | 0.00 | 0.00 | 48 | 1018.8 |
| 20260502151307 | 12 | 296 | 9.7 | 22.5 | 0.00 | 0.00 | 0.00 | 50 | 1018.7 |
| 20260502151216 | 12 | 323 | 11.3 | 22.5 | 0.00 | 0.00 | 0.00 | 47 | 1018.7 |
| 20260502151121 | 11 | 342 | 14.5 | 22.5 | 0.00 | 0.00 | 0.00 | 48 | 1018.7 |
| 20260502151005 | 11 | 355 | 11.3 | 22.5 | 0.00 | 0.00 | 0.00 | 48 | 1018.7 |
| 20260502150909 | 11 | 23 | 8.0 | 19.3 | 0.00 | 0.00 | 0.00 | 50 | 1018.8 |
| 20260502150813 | 11 | 340 | 11.3 | 19.3 | 0.00 | 0.00 | 0.00 | 47 | 1018.7 |
| 20260502150718 | 11 | 348 | 14.5 | 19.3 | 0.00 | 0.00 | 0.00 | 47 | 1018.7 |
| 20260502150627 | 11 | 323 | 12.9 | 19.3 | 0.00 | 0.00 | 0.00 | 48 | 1018.8 |
| 20260502150504 | 11 | 328 | 11.3 | 17.7 | 0.00 | 0.00 | 0.00 | 48 | 1018.8 |
| 20260502150408 | 11 | 301 | 14.5 | 17.7 | 0.00 | 0.00 | 0.00 | 49 | 1018.7 |
| 20260502150332 | 11 | 300 | 12.9 | 17.7 | 0.00 | 0.00 | 0.00 | 48 | 1018.7 |
| 20260502150215 | 11 | 279 | 11.3 | 17.7 | 0.00 | 0.00 | 0.00 | 49 | 1018.8 |
| 20260502150120 | 11 | 290 | 14.5 | 17.7 | 0.00 | 0.00 | 0.00 | 49 | 1018.8 |
| 20260502140129 | 10 | 318 | 9.7 | 14.5 | 0.00 | 0.00 | 0.00 | 54 | 1019.1 |
| 20260502130706 | 7 | 321 | 6.4 | 14.5 | 0.00 | 0.00 | 0.00 | 65 | 1019.2 |
| 20260502130611 | 6 | 300 | 6.4 | 14.5 | 0.00 | 0.00 | 0.00 | 65 | 1019.1 |
| 20260502130515 | 6 | 323 | 6.4 | 14.5 | 0.00 | 0.00 | 0.00 | 66 | 1019.2 |
| 20260502130440 | 6 | 319 | 8.0 | 14.5 | 0.00 | 0.00 | 0.00 | 66 | 1019.2 |
| 20260502130307 | 6 | 318 | 9.7 | 14.5 | 0.00 | 0.00 | 0.00 | 67 | 1019.3 |
| 20260502130211 | 6 | 304 | 6.4 | 12.9 | 0.00 | 0.00 | 0.00 | 68 | 1019.2 |
| 20260502130116 | 6 | 300 | 4.8 | 12.9 | 0.00 | 0.00 | 0.00 | 68 | 1019.2 |
| 20260502123814 | 5 | 316 | 6.4 | 12.9 | 0.00 | 0.00 | 0.00 | 73 | 1019.2 |
| 20260502123737 | 5 | 310 | 6.4 | 12.9 | 0.00 | 0.00 | 0.00 | 74 | 1019.3 |
| 20260502123624 | 5 | 319 | 4.8 | 12.9 | 0.00 | 0.00 | 0.00 | 74 | 1019.3 |
| 20260502123507 | 5 | 313 | 4.8 | 12.9 | 0.00 | 0.00 | 0.00 | 74 | 1019.3 |
| 20260502123410 | 5 | 306 | 6.4 | 12.9 | 0.00 | 0.00 | 0.00 | 74 | 1019.3 |
| 20260502123333 | 5 | 300 | 6.4 | 12.9 | 0.00 | 0.00 | 0.00 | 75 | 1019.4 |
| 20260502123216 | 4 | 290 | 6.4 | 9.7 | 0.00 | 0.00 | 0.00 | 75 | 1019.3 |
| 20260502123119 | 4 | 311 | 6.4 | 9.7 | 0.00 | 0.00 | 0.00 | 76 | 1019.3 |
| 20260502123043 | 4 | 306 | 4.8 | 12.9 | 0.00 | 0.00 | 0.00 | 76 | 1019.2 |
| 20260502122907 | 4 | 313 | 6.4 | 12.9 | 0.00 | 0.00 | 0.00 | 77 | 1019.2 |
| 20260502122814 | 4 | 332 | 6.4 | 12.9 | 0.00 | 0.00 | 0.00 | 77 | 1019.2 |
| 20260502122718 | 4 | 302 | 6.4 | 12.9 | 0.00 | 0.00 | 0.00 | 77 | 1019.2 |
| 20260502122642 | 4 | 292 | 6.4 | 12.9 | 0.00 | 0.00 | 0.00 | 77 | 1019.3 |
| 20260502122504 | 3 | 304 | 6.4 | 12.9 | 0.00 | 0.00 | 0.00 | 78 | 1019.2 |
| 20260502122427 | 3 | 310 | 6.4 | 12.9 | 0.00 | 0.00 | 0.00 | 78 | 1019.2 |
| 20260502122306 | 3 | 338 | 6.4 | 12.9 | 0.00 | 0.00 | 0.00 | 78 | 1019.2 |
| 20260502122212 | 3 | 294 | 6.4 | 12.9 | 0.00 | 0.00 | 0.00 | 79 | 1019.2 |
| 20260502122117 | 3 | 298 | 4.8 | 8.0 | 0.00 | 0.00 | 0.00 | 80 | 1019.2 |
| 20260502122019 | 3 | 306 | 4.8 | 8.0 | 0.00 | 0.00 | 0.00 | 80 | 1019.2 |
| 20260502121903 | 3 | 308 | 4.8 | 8.0 | 0.00 | 0.00 | 0.00 | 81 | 1019.2 |
| 20260502121827 | 3 | 298 | 4.8 | 8.0 | 0.00 | 0.00 | 0.00 | 81 | 1019.2 |
| 20260502121704 | 3 | 311 | 6.4 | 8.0 | 0.00 | 0.00 | 0.00 | 81 | 1019.2 |
| 20260502121629 | 3 | 302 | 4.8 | 8.0 | 0.00 | 0.00 | 0.00 | 82 | 1019.2 |
| 20260502121516 | 3 | 280 | 4.8 | 8.0 | 0.00 | 0.00 | 0.00 | 82 | 1019.2 |
| 20260502121440 | 3 | 316 | 4.8 | 8.0 | 0.00 | 0.00 | 0.00 | 83 | 1019.2 |
| 20260502121322 | 3 | 288 | 4.8 | 6.4 | 0.00 | 0.00 | 0.00 | 83 | 1019.1 |
| 20260502121227 | 2 | 299 | 4.8 | 8.0 | 0.00 | 0.00 | 0.00 | 83 | 1019.1 |
| 20260502121130 | 2 | 294 | 4.8 | 8.0 | 0.00 | 0.00 | 0.00 | 84 | 1019.2 |
| 20260502121031 | 2 | 292 | 4.8 | 8.0 | 0.00 | 0.00 | 0.00 | 84 | 1019.1 |
| 20260502120935 | 2 | 302 | 4.8 | 8.0 | 0.00 | 0.00 | 0.00 | 84 | 1019.1 |
| 20260502120818 | 2 | 302 | 4.8 | 8.0 | 0.00 | 0.00 | 0.00 | 85 | 1019.1 |
| 20260502120727 | 2 | 298 | 4.8 | 8.0 | 0.00 | 0.00 | 0.00 | 85 | 1019.1 |
| 20260502120604 | 2 | 297 | 4.8 | 8.0 | 0.00 | 0.00 | 0.00 | 86 | 1019.1 |
| 20260502120527 | 2 | 295 | 4.8 | 8.0 | 0.00 | 0.00 | 0.00 | 86 | 1019.1 |
| 20260502120403 | 2 | 296 | 4.8 | 8.0 | 0.00 | 0.00 | 0.00 | 87 | 1019.2 |
| 20260502120306 | 2 | 288 | 4.8 | 6.4 | 0.00 | 0.00 | 0.00 | 88 | 1019.1 |
| 20260502120210 | 2 | 303 | 4.8 | 6.4 | 0.00 | 0.00 | 0.00 | 88 | 1019.1 |
| 20260502120112 | 1 | 304 | 4.8 | 6.4 | 0.00 | 0.00 | 0.00 | 88 | 1019.1 |
| 20260502115905 | 1 | 298 | 3.2 | 6.4 | 0.00 | 0.00 | 0.00 | 89 | 1019.0 |
| 20260502115809 | 1 | 298 | 4.8 | 6.4 | 0.00 | 0.00 | 0.00 | 89 | 1019.1 |
| 20260502115713 | 1 | 297 | 4.8 | 6.4 | 0.00 | 0.00 | 0.00 | 90 | 1019.1 |
| 20260502115616 | 1 | 296 | 4.8 | 8.0 | 0.00 | 0.00 | 0.00 | 90 | 1019.1 |
| 20260502115505 | 1 | 300 | 3.2 | 8.0 | 0.00 | 0.00 | 0.00 | 90 | 1019.1 |
| 20260502115430 | 1 | 300 | 3.2 | 8.0 | 0.00 | 0.00 | 0.00 | 90 | 1019.2 |
| 20260502115306 | 1 | 300 | 4.8 | 8.0 | 0.00 | 0.00 | 0.00 | 91 | 1019.1 |
| 20260502115230 | 1 | 296 | 4.8 | 8.0 | 0.00 | 0.00 | 0.00 | 91 | 1019.1 |
| 20260502115106 | 0 | 296 | 4.8 | 8.0 | 0.00 | 0.00 | 0.00 | 91 | 1019.2 |
| 20260502115010 | 0 | 296 | 4.8 | 8.0 | 0.00 | 0.00 | 0.00 | 91 | 1019.1 |
| 20260502114914 | 0 | 295 | 4.8 | 8.0 | 0.00 | 0.00 | 0.00 | 91 | 1019.1 |
| 20260502114821 | 0 | 296 | 3.2 | 8.0 | 0.00 | 0.00 | 0.00 | 91 | 1019.1 |
| 20260502114744 | 0 | 282 | 3.2 | 4.8 | 0.00 | 0.00 | 0.00 | 91 | 1019.1 |
| 20260502114626 | 0 | 282 | 3.2 | 4.8 | 0.00 | 0.00 | 0.00 | 91 | 1019.1 |
| 20260502114406 | 0 | 282 | 3.2 | 4.8 | 0.00 | 0.00 | 0.00 | 91 | 1019.1 |
| 20260502114310 | 0 | 283 | 3.2 | 4.8 | 0.00 | 0.00 | 0.00 | 91 | 1019.1 |
| 20260502114217 | 0 | 283 | 3.2 | 4.8 | 0.00 | 0.00 | 0.00 | 91 | 1019.1 |
| 20260502114119 | 0 | 283 | 3.2 | 4.8 | 0.00 | 0.00 | 0.00 | 91 | 1019.1 |
| 20260502114022 | 0 | 283 | 3.2 | 4.8 | 0.00 | 0.00 | 0.00 | 91 | 1019.2 |
| 20260502113925 | 0 | 283 | 3.2 | 4.8 | 0.00 | 0.00 | 0.00 | 91 | 1019.2 |
| 20260502113807 | 0 | 283 | 3.2 | 4.8 | 0.00 | 0.00 | 0.00 | 91 | 1019.1 |
| 20260502113712 | 0 | 283 | 3.2 | 4.8 | 0.00 | 0.00 | 0.00 | 91 | 1019.2 |
| 20260502113614 | 0 | 282 | 3.2 | 4.8 | 0.00 | 0.00 | 0.00 | 91 | 1019.1 |
| 20260502113521 | 0 | 282 | 3.2 | 4.8 | 0.00 | 0.00 | 0.00 | 91 | 1019.1 |
| 20260502113424 | -1 | 282 | 3.2 | 4.8 | 0.00 | 0.00 | 0.00 | 91 | 1019.2 |
| 20260502113308 | -1 | 284 | 3.2 | 4.8 | 0.00 | 0.00 | 0.00 | 91 | 1019.1 |
| 20260502113212 | -1 | 284 | 3.2 | 4.8 | 0.00 | 0.00 | 0.00 | 91 | 1019.1 |
| 20260502113114 | -1 | 284 | 3.2 | 4.8 | 0.00 | 0.00 | 0.00 | 91 | 1019.1 |
| 20260502113038 | -1 | 284 | 3.2 | 4.8 | 0.00 | 0.00 | 0.00 | 90 | 1019.1 |
| 20260502112917 | -1 | 284 | 3.2 | 4.8 | 0.00 | 0.00 | 0.00 | 90 | 1019.1 |
| 20260502112821 | -1 | 284 | 3.2 | 4.8 | 0.00 | 0.00 | 0.00 | 90 | 1019.1 |
| 20260502112721 | -1 | 284 | 3.2 | 4.8 | 0.00 | 0.00 | 0.00 | 90 | 1019.1 |
| 20260502112622 | -1 | 284 | 3.2 | 4.8 | 0.00 | 0.00 | 0.00 | 90 | 1019.1 |
| 20260502112543 | -1 | 284 | 3.2 | 4.8 | 0.00 | 0.00 | 0.00 | 90 | 1019.0 |
| 20260502112422 | -1 | 284 | 3.2 | 4.8 | 0.00 | 0.00 | 0.00 | 90 | 1019.1 |
| 20260502112323 | -1 | 284 | 3.2 | 6.4 | 0.00 | 0.00 | 0.00 | 89 | 1019.0 |
| 20260502112244 | -1 | 284 | 3.2 | 6.4 | 0.00 | 0.00 | 0.00 | 89 | 1019.1 |
| 20260502112107 | -1 | 284 | 3.2 | 6.4 | 0.00 | 0.00 | 0.00 | 89 | 1019.0 |
| 20260502112011 | -1 | 284 | 3.2 | 6.4 | 0.00 | 0.00 | 0.00 | 90 | 1019.1 |
| 20260502111912 | -1 | 284 | 3.2 | 6.4 | 0.00 | 0.00 | 0.00 | 90 | 1019.0 |
| 20260502111812 | -1 | 284 | 1.6 | 6.4 | 0.00 | 0.00 | 0.00 | 90 | 1019.0 |
| 20260502111713 | -1 | 283 | 3.2 | 6.4 | 0.00 | 0.00 | 0.00 | 90 | 1019.0 |
| 20260502111634 | -1 | 283 | 3.2 | 6.4 | 0.00 | 0.00 | 0.00 | 89 | 1019.0 |
| 20260502111517 | -1 | 283 | 3.2 | 6.4 | 0.00 | 0.00 | 0.00 | 89 | 1019.0 |
| 20260502111425 | -1 | 283 | 3.2 | 4.8 | 0.00 | 0.00 | 0.00 | 89 | 1019.0 |
| 20260502111350 | -1 | 282 | 3.2 | 4.8 | 0.00 | 0.00 | 0.00 | 89 | 1019.0 |
| 20260502111205 | -1 | 282 | 1.6 | 4.8 | 0.00 | 0.00 | 0.00 | 89 | 1018.9 |
| 20260502111130 | -1 | 282 | 1.6 | 4.8 | 0.00 | 0.00 | 0.00 | 89 | 1018.9 |
| 20260502111006 | -1 | 282 | 0.0 | 4.8 | 0.00 | 0.00 | 0.00 | 89 | 1018.9 |
| 20260502110930 | -1 | 282 | 0.0 | 4.8 | 0.00 | 0.00 | 0.00 | 89 | 1018.9 |
| 20260502110815 | -1 | 282 | 0.0 | 4.8 | 0.00 | 0.00 | 0.00 | 89 | 1018.8 |
| 20260502110703 | -1 | 282 | 1.6 | 4.8 | 0.00 | 0.00 | 0.00 | 89 | 1018.9 |
| 20260502110626 | -1 | 282 | 1.6 | 4.8 | 0.00 | 0.00 | 0.00 | 89 | 1018.8 |
| 20260502110503 | -1 | 282 | 1.6 | 4.8 | 0.00 | 0.00 | 0.00 | 89 | 1018.9 |
| 20260502110428 | -1 | 282 | 3.2 | 4.8 | 0.00 | 0.00 | 0.00 | 89 | 1018.9 |
| 20260502110309 | -1 | 282 | 1.6 | 4.8 | 0.00 | 0.00 | 0.00 | 89 | 1019.0 |
| 20260502110212 | -1 | 282 | 3.2 | 4.8 | 0.00 | 0.00 | 0.00 | 89 | 1019.0 |
| 20260502110118 | -1 | 282 | 3.2 | 4.8 | 0.00 | 0.00 | 0.00 | 89 | 1019.0 |
| 20260502110005 | -1 | 282 | 3.2 | 4.8 | 0.00 | 0.00 | 0.00 | 89 | 1019.0 |
| 20260502105929 | -1 | 282 | 3.2 | 3.2 | 0.00 | 0.00 | 0.00 | 89 | 1019.0 |
| 20260502105805 | -1 | 282 | 1.6 | 3.2 | 0.00 | 0.00 | 0.00 | 89 | 1018.9 |
| 20260502105710 | -1 | 282 | 1.6 | 3.2 | 0.00 | 0.00 | 0.00 | 89 | 1019.0 |
| 20260502105614 | -1 | 282 | 1.6 | 3.2 | 0.00 | 0.00 | 0.00 | 89 | 1018.9 |
| 20260502105519 | -1 | 282 | 0.0 | 3.2 | 0.00 | 0.00 | 0.00 | 89 | 1018.9 |
| 20260502105407 | -1 | 282 | 0.0 | 1.6 | 0.00 | 0.00 | 0.00 | 89 | 1018.9 |
| 20260502105332 | -1 | 282 | 0.0 | 1.6 | 0.00 | 0.00 | 0.00 | 89 | 1019.0 |
| 20260502105216 | -1 | 282 | 0.0 | 0.0 | 0.00 | 0.00 | 0.00 | 88 | 1019.0 |
| 20260502105120 | -1 | 282 | 0.0 | 1.6 | 0.00 | 0.00 | 0.00 | 88 | 1019.0 |
| 20260502105024 | -1 | 282 | 0.0 | 1.6 | 0.00 | 0.00 | 0.00 | 88 | 1019.0 |
| 20260502104928 | -1 | 282 | 0.0 | 1.6 | 0.00 | 0.00 | 0.00 | 88 | 1018.9 |
| 20260502104811 | -1 | 282 | 0.0 | 1.6 | 0.00 | 0.00 | 0.00 | 88 | 1018.9 |
| 20260502104720 | -1 | 282 | 0.0 | 3.2 | 0.00 | 0.00 | 0.00 | 88 | 1019.0 |
| 20260502104604 | -1 | 282 | 0.0 | 3.2 | 0.00 | 0.00 | 0.00 | 88 | 1019.0 |
| 20260502104508 | -1 | 282 | 0.0 | 3.2 | 0.00 | 0.00 | 0.00 | 88 | 1019.0 |
| 20260502104411 | -1 | 282 | 0.0 | 3.2 | 0.00 | 0.00 | 0.00 | 88 | 1018.9 |
| 20260502104315 | -1 | 282 | 0.0 | 3.2 | 0.00 | 0.00 | 0.00 | 88 | 1019.0 |
| 20260502104204 | -1 | 282 | 0.0 | 3.2 | 0.00 | 0.00 | 0.00 | 88 | 1019.0 |
| 20260502104109 | -1 | 282 | 1.6 | 3.2 | 0.00 | 0.00 | 0.00 | 88 | 1019.0 |
| 20260502104014 | -1 | 282 | 1.6 | 3.2 | 0.00 | 0.00 | 0.00 | 88 | 1019.0 |
| 20260502103936 | -1 | 282 | 1.6 | 3.2 | 0.00 | 0.00 | 0.00 | 88 | 1019.0 |
| 20260502103817 | -1 | 282 | 1.6 | 3.2 | 0.00 | 0.00 | 0.00 | 88 | 1019.0 |
| 20260502103739 | -1 | 282 | 1.6 | 3.2 | 0.00 | 0.00 | 0.00 | 88 | 1018.9 |
| 20260502103639 | -1 | 282 | 1.6 | 3.2 | 0.00 | 0.00 | 0.00 | 88 | 1019.0 |
| 20260502103520 | -1 | 282 | 1.6 | 3.2 | 0.00 | 0.00 | 0.00 | 88 | 1019.0 |
| 20260502103442 | -1 | 282 | 1.6 | 3.2 | 0.00 | 0.00 | 0.00 | 88 | 1019.1 |
| 20260502103306 | -1 | 282 | 1.6 | 3.2 | 0.00 | 0.00 | 0.00 | 88 | 1019.1 |
| 20260502103207 | -1 | 282 | 1.6 | 3.2 | 0.00 | 0.00 | 0.00 | 88 | 1019.1 |
| 20260502103108 | -1 | 282 | 1.6 | 3.2 | 0.00 | 0.00 | 0.00 | 88 | 1019.1 |
| 20260502103010 | -1 | 282 | 0.0 | 1.6 | 0.00 | 0.00 | 0.00 | 88 | 1019.1 |
| 20260502102912 | -1 | 282 | 0.0 | 3.2 | 0.00 | 0.00 | 0.00 | 88 | 1019.1 |
| 20260502102814 | -1 | 282 | 0.0 | 3.2 | 0.00 | 0.00 | 0.00 | 88 | 1019.1 |
| 20260502102740 | -1 | 282 | 0.0 | 3.2 | 0.00 | 0.00 | 0.00 | 88 | 1019.0 |
| 20260502102638 | -1 | 282 | 0.0 | 3.2 | 0.00 | 0.00 | 0.00 | 88 | 1019.1 |
| 20260502102519 | -1 | 282 | 0.0 | 3.2 | 0.00 | 0.00 | 0.00 | 88 | 1019.0 |
| 20260502102420 | -1 | 282 | 1.6 | 3.2 | 0.00 | 0.00 | 0.00 | 88 | 1019.0 |
| 20260502102322 | -1 | 282 | 1.6 | 3.2 | 0.00 | 0.00 | 0.00 | 88 | 1019.0 |
| 20260502102223 | -1 | 282 | 1.6 | 3.2 | 0.00 | 0.00 | 0.00 | 88 | 1019.0 |
| 20260502102144 | -1 | 282 | 1.6 | 3.2 | 0.00 | 0.00 | 0.00 | 88 | 1019.1 |
| 20260502102045 | -1 | 282 | 1.6 | 3.2 | 0.00 | 0.00 | 0.00 | 88 | 1019.1 |
| 20260502101909 | -1 | 282 | 1.6 | 3.2 | 0.00 | 0.00 | 0.00 | 87 | 1019.0 |
| 20260502101809 | -1 | 282 | 1.6 | 3.2 | 0.00 | 0.00 | 0.00 | 87 | 1019.1 |
| 20260502101710 | 0 | 282 | 1.6 | 3.2 | 0.00 | 0.00 | 0.00 | 87 | 1019.0 |
| 20260502101631 | 0 | 282 | 1.6 | 3.2 | 0.00 | 0.00 | 0.00 | 87 | 1019.0 |
| 20260502101552 | 0 | 282 | 1.6 | 3.2 | 0.00 | 0.00 | 0.00 | 87 | 1019.0 |
| 20260502101406 | 0 | 282 | 1.6 | 3.2 | 0.00 | 0.00 | 0.00 | 88 | 1019.0 |
| 20260502101310 | 0 | 282 | 1.6 | 3.2 | 0.00 | 0.00 | 0.00 | 88 | 1019.0 |
| 20260502101218 | 0 | 282 | 0.0 | 3.2 | 0.00 | 0.00 | 0.00 | 88 | 1018.9 |
| 20260502101103 | 0 | 282 | 1.6 | 3.2 | 0.00 | 0.00 | 0.00 | 88 | 1019.0 |
| 20260502101007 | 0 | 282 | 1.6 | 3.2 | 0.00 | 0.00 | 0.00 | 88 | 1019.0 |
| 20260502100911 | 0 | 282 | 1.6 | 3.2 | 0.00 | 0.00 | 0.00 | 88 | 1019.0 |
| 20260502100816 | 0 | 282 | 1.6 | 3.2 | 0.00 | 0.00 | 0.00 | 88 | 1019.0 |
| 20260502100704 | 0 | 282 | 1.6 | 3.2 | 0.00 | 0.00 | 0.00 | 88 | 1019.0 |
| 20260502100629 | 0 | 282 | 1.6 | 3.2 | 0.00 | 0.00 | 0.00 | 88 | 1019.0 |
| 20260502100512 | 0 | 282 | 1.6 | 3.2 | 0.00 | 0.00 | 0.00 | 88 | 1019.0 |
| 20260502100416 | 0 | 282 | 1.6 | 3.2 | 0.00 | 0.00 | 0.00 | 88 | 1019.0 |
| 20260502100320 | 0 | 282 | 0.0 | 3.2 | 0.00 | 0.00 | 0.00 | 88 | 1019.0 |
| 20260502100205 | 0 | 282 | 0.0 | 3.2 | 0.00 | 0.00 | 0.00 | 88 | 1019.0 |
| 20260502100110 | 0 | 282 | 0.0 | 3.2 | 0.00 | 0.00 | 0.00 | 88 | 1018.9 |
| 20260502091513 | 0 | 283 | 0.0 | 3.2 | 0.00 | 0.00 | 0.00 | 86 | 1018.9 |
| 20260502091437 | 0 | 283 | 1.6 | 3.2 | 0.00 | 0.00 | 0.00 | 86 | 1018.7 |
| 20260502091305 | 0 | 283 | 3.2 | 3.2 | 0.00 | 0.00 | 0.00 | 86 | 1018.9 |
| 20260502091228 | 0 | 283 | 3.2 | 3.2 | 0.00 | 0.00 | 0.00 | 87 | 1018.8 |
| 20260502091106 | 0 | 283 | 3.2 | 3.2 | 0.00 | 0.00 | 0.00 | 88 | 1018.8 |
| 20260502091011 | 0 | 283 | 1.6 | 3.2 | 0.00 | 0.00 | 0.00 | 88 | 1018.8 |
| 20260502090934 | 0 | 283 | 1.6 | 3.2 | 0.00 | 0.00 | 0.00 | 88 | 1018.9 |
| 20260502090816 | 0 | 283 | 0.0 | 3.2 | 0.00 | 0.00 | 0.00 | 88 | 1018.8 |
| 20260502090721 | 0 | 282 | 0.0 | 3.2 | 0.00 | 0.00 | 0.00 | 88 | 1018.8 |
| 20260502090609 | 0 | 282 | 0.0 | 3.2 | 0.00 | 0.00 | 0.00 | 88 | 1018.8 |
| 20260502090514 | 0 | 282 | 0.0 | 3.2 | 0.00 | 0.00 | 0.00 | 88 | 1018.8 |
| 20260502090418 | 0 | 282 | 0.0 | 3.2 | 0.00 | 0.00 | 0.00 | 88 | 1018.8 |
| 20260502090302 | 0 | 282 | 1.6 | 3.2 | 0.00 | 0.00 | 0.00 | 88 | 1018.8 |
| 20260502090207 | 0 | 282 | 1.6 | 3.2 | 0.00 | 0.00 | 0.00 | 87 | 1018.8 |
| 20260502090131 | 0 | 282 | 1.6 | 3.2 | 0.00 | 0.00 | 0.00 | 87 | 1018.7 |
| 20260502071524 | 1 | 281 | 3.2 | 4.8 | 0.00 | 0.00 | 0.00 | 85 | 1018.9 |
| 20260502071408 | 1 | 281 | 3.2 | 4.8 | 0.00 | 0.00 | 0.00 | 85 | 1018.9 |
| 20260502071313 | 1 | 281 | 3.2 | 4.8 | 0.00 | 0.00 | 0.00 | 85 | 1019.0 |
| 20260502071218 | 1 | 281 | 3.2 | 4.8 | 0.00 | 0.00 | 0.00 | 85 | 1019.0 |
| 20260502071143 | 1 | 281 | 3.2 | 3.2 | 0.00 | 0.00 | 0.00 | 85 | 1019.0 |
| 20260502071027 | 1 | 281 | 3.2 | 3.2 | 0.00 | 0.00 | 0.00 | 85 | 1019.0 |
| 20260502070913 | 1 | 281 | 3.2 | 3.2 | 0.00 | 0.00 | 0.00 | 85 | 1018.9 |
| 20260502070818 | 1 | 281 | 3.2 | 3.2 | 0.00 | 0.00 | 0.00 | 86 | 1019.0 |
| 20260502070722 | 1 | 281 | 3.2 | 3.2 | 0.00 | 0.00 | 0.00 | 86 | 1019.0 |
| 20260502070606 | 1 | 281 | 3.2 | 3.2 | 0.00 | 0.00 | 0.00 | 86 | 1019.0 |
| 20260502070511 | 1 | 281 | 1.6 | 3.2 | 0.00 | 0.00 | 0.00 | 86 | 1018.9 |
| 20260502070416 | 1 | 281 | 3.2 | 3.2 | 0.00 | 0.00 | 0.00 | 86 | 1019.1 |
| 20260502070304 | 1 | 281 | 3.2 | 3.2 | 0.00 | 0.00 | 0.00 | 86 | 1019.0 |
| 20260502070228 | 1 | 281 | 3.2 | 3.2 | 0.00 | 0.00 | 0.00 | 86 | 1019.0 |
| 20260502070105 | 1 | 281 | 1.6 | 4.8 | 0.00 | 0.00 | 0.00 | 86 | 1019.0 |
| 20260502070010 | 1 | 281 | 3.2 | 4.8 | 0.00 | 0.00 | 0.00 | 86 | 1019.0 |
| 20260502065915 | 1 | 281 | 3.2 | 4.8 | 0.00 | 0.00 | 0.00 | 86 | 1019.0 |
| 20260502065819 | 1 | 281 | 3.2 | 4.8 | 0.00 | 0.00 | 0.00 | 86 | 1019.1 |
| 20260502065708 | 1 | 281 | 3.2 | 4.8 | 0.00 | 0.00 | 0.00 | 86 | 1019.1 |
| 20260502065613 | 1 | 281 | 3.2 | 4.8 | 0.00 | 0.00 | 0.00 | 86 | 1019.1 |
| 20260502065518 | 1 | 281 | 3.2 | 4.8 | 0.00 | 0.00 | 0.00 | 86 | 1019.1 |
| 20260502065422 | 1 | 281 | 3.2 | 4.8 | 0.00 | 0.00 | 0.00 | 85 | 1019.0 |
| 20260502065327 | 1 | 281 | 3.2 | 4.8 | 0.00 | 0.00 | 0.00 | 86 | 1019.1 |
| 20260502065209 | 1 | 281 | 3.2 | 4.8 | 0.00 | 0.00 | 0.00 | 86 | 1019.1 |
| 20260502065117 | 1 | 281 | 3.2 | 4.8 | 0.00 | 0.00 | 0.00 | 86 | 1019.1 |
| 20260502065021 | 1 | 281 | 3.2 | 4.8 | 0.00 | 0.00 | 0.00 | 86 | 1019.1 |
| 20260502064906 | 1 | 281 | 3.2 | 4.8 | 0.00 | 0.00 | 0.00 | 86 | 1019.1 |
| 20260502064810 | 1 | 281 | 3.2 | 4.8 | 0.00 | 0.00 | 0.00 | 86 | 1019.0 |
| 20260502064714 | 1 | 281 | 3.2 | 4.8 | 0.00 | 0.00 | 0.00 | 86 | 1019.1 |
| 20260502064635 | 1 | 281 | 3.2 | 4.8 | 0.00 | 0.00 | 0.00 | 86 | 1019.1 |
| 20260502064516 | 1 | 281 | 3.2 | 4.8 | 0.00 | 0.00 | 0.00 | 86 | 1019.0 |
| 20260502064424 | 1 | 281 | 3.2 | 4.8 | 0.00 | 0.00 | 0.00 | 86 | 1019.0 |
| 20260502064327 | 1 | 281 | 3.2 | 4.8 | 0.00 | 0.00 | 0.00 | 86 | 1019.0 |
| 20260502064204 | 1 | 281 | 1.6 | 4.8 | 0.00 | 0.00 | 0.00 | 86 | 1018.9 |
| 20260502064128 | 1 | 281 | 1.6 | 4.8 | 0.00 | 0.00 | 0.00 | 86 | 1019.0 |
| 20260502064012 | 1 | 281 | 1.6 | 4.8 | 0.00 | 0.00 | 0.00 | 86 | 1019.0 |
| 20260502063915 | 1 | 281 | 3.2 | 6.4 | 0.00 | 0.00 | 0.00 | 85 | 1019.0 |
| 20260502063803 | 1 | 281 | 3.2 | 6.4 | 0.00 | 0.00 | 0.00 | 85 | 1019.1 |
| 20260502063728 | 1 | 281 | 3.2 | 6.4 | 0.00 | 0.00 | 0.00 | 85 | 1019.0 |
| 20260502063604 | 1 | 281 | 3.2 | 6.4 | 0.00 | 0.00 | 0.00 | 85 | 1019.0 |
| 20260502063529 | 1 | 281 | 3.2 | 6.4 | 0.00 | 0.00 | 0.00 | 85 | 1019.0 |
| 20260502063405 | 1 | 281 | 3.2 | 6.4 | 0.00 | 0.00 | 0.00 | 85 | 1019.1 |
| 20260502063328 | 1 | 281 | 3.2 | 6.4 | 0.00 | 0.00 | 0.00 | 85 | 1019.0 |
| 20260502063204 | 1 | 281 | 3.2 | 6.4 | 0.00 | 0.00 | 0.00 | 85 | 1019.1 |
| 20260502063112 | 1 | 281 | 3.2 | 6.4 | 0.00 | 0.00 | 0.00 | 85 | 1019.1 |
| 20260502063018 | 1 | 281 | 3.2 | 6.4 | 0.00 | 0.00 | 0.00 | 85 | 1019.1 |
| 20260502062922 | 1 | 281 | 3.2 | 6.4 | 0.00 | 0.00 | 0.00 | 85 | 1019.1 |
| 20260502062825 | 1 | 281 | 3.2 | 6.4 | 0.00 | 0.00 | 0.00 | 85 | 1019.1 |
| 20260502062703 | 1 | 281 | 3.2 | 6.4 | 0.00 | 0.00 | 0.00 | 85 | 1019.1 |
| 20260502062607 | 1 | 281 | 3.2 | 6.4 | 0.00 | 0.00 | 0.00 | 85 | 1019.0 |
| 20260502062515 | 1 | 282 | 3.2 | 6.4 | 0.00 | 0.00 | 0.00 | 85 | 1019.1 |
| 20260502062418 | 1 | 282 | 3.2 | 4.8 | 0.00 | 0.00 | 0.00 | 85 | 1019.1 |
| 20260502062321 | 1 | 282 | 3.2 | 4.8 | 0.00 | 0.00 | 0.00 | 85 | 1019.1 |
| 20260502062226 | 1 | 286 | 1.6 | 3.2 | 0.00 | 0.00 | 0.00 | 85 | 1019.1 |
| 20260502062109 | 1 | 286 | 1.6 | 4.8 | 0.00 | 0.00 | 0.00 | 85 | 1019.1 |
| 20260502062014 | 1 | 286 | 1.6 | 4.8 | 0.00 | 0.00 | 0.00 | 85 | 1019.1 |
| 20260502061922 | 1 | 286 | 3.2 | 4.8 | 0.00 | 0.00 | 0.00 | 85 | 1019.1 |
| 20260502061826 | 1 | 287 | 1.6 | 4.8 | 0.00 | 0.00 | 0.00 | 85 | 1019.1 |
| 20260502061709 | 1 | 287 | 1.6 | 4.8 | 0.00 | 0.00 | 0.00 | 85 | 1019.1 |
| 20260502061612 | 1 | 287 | 1.6 | 4.8 | 0.00 | 0.00 | 0.00 | 85 | 1019.2 |
| 20260502061515 | 1 | 287 | 1.6 | 4.8 | 0.00 | 0.00 | 0.00 | 85 | 1019.1 |
| 20260502061230 | 1 | 287 | 3.2 | 4.8 | 0.00 | 0.00 | 0.00 | 85 | 1019.1 |
| 20260502061106 | 1 | 287 | 3.2 | 4.8 | 0.00 | 0.00 | 0.00 | 85 | 1019.2 |
| 20260502061031 | 1 | 287 | 3.2 | 4.8 | 0.00 | 0.00 | 0.00 | 85 | 1019.2 |
| 20260502060934 | 1 | 287 | 3.2 | 6.4 | 0.00 | 0.00 | 0.00 | 85 | 1019.1 |
| 20260502060837 | 1 | 287 | 3.2 | 6.4 | 0.00 | 0.00 | 0.00 | 85 | 1019.2 |
| 20260502060718 | 1 | 287 | 3.2 | 6.4 | 0.00 | 0.00 | 0.00 | 85 | 1019.2 |
| 20260502060621 | 1 | 287 | 3.2 | 6.4 | 0.00 | 0.00 | 0.00 | 85 | 1019.1 |
| 20260502060507 | 1 | 287 | 3.2 | 6.4 | 0.00 | 0.00 | 0.00 | 85 | 1019.2 |
| 20260502060429 | 1 | 287 | 3.2 | 6.4 | 0.00 | 0.00 | 0.00 | 85 | 1019.1 |
| 20260502060307 | 1 | 288 | 3.2 | 6.4 | 0.00 | 0.00 | 0.00 | 85 | 1019.2 |
| 20260502060230 | 1 | 287 | 4.8 | 6.4 | 0.00 | 0.00 | 0.00 | 85 | 1019.1 |
| 20260502060107 | 1 | 288 | 3.2 | 6.4 | 0.00 | 0.00 | 0.00 | 85 | 1019.1 |
| 20260502060029 | 1 | 288 | 3.2 | 6.4 | 0.00 | 0.00 | 0.00 | 85 | 1019.1 |
| 20260502055910 | 1 | 288 | 3.2 | 6.4 | 0.00 | 0.00 | 0.00 | 85 | 1019.1 |
| 20260502055817 | 1 | 289 | 3.2 | 4.8 | 0.00 | 0.00 | 0.00 | 85 | 1019.2 |
| 20260502055720 | 1 | 289 | 4.8 | 4.8 | 0.00 | 0.00 | 0.00 | 85 | 1019.2 |
| 20260502055624 | 1 | 289 | 4.8 | 4.8 | 0.00 | 0.00 | 0.00 | 85 | 1019.1 |
| 20260502055526 | 1 | 289 | 3.2 | 4.8 | 0.00 | 0.00 | 0.00 | 85 | 1019.1 |
| 20260502055429 | 1 | 289 | 3.2 | 4.8 | 0.00 | 0.00 | 0.00 | 85 | 1019.2 |
| 20260502055306 | 1 | 290 | 3.2 | 4.8 | 0.00 | 0.00 | 0.00 | 85 | 1019.2 |
| 20260502055207 | 1 | 290 | 3.2 | 4.8 | 0.00 | 0.00 | 0.00 | 85 | 1019.2 |
| 20260502055115 | 1 | 290 | 3.2 | 6.4 | 0.00 | 0.00 | 0.00 | 85 | 1019.1 |
| 20260502055038 | 1 | 290 | 3.2 | 6.4 | 0.00 | 0.00 | 0.00 | 85 | 1019.1 |
| 20260502054919 | 1 | 291 | 3.2 | 6.4 | 0.00 | 0.00 | 0.00 | 85 | 1019.2 |
| 20260502054804 | 1 | 292 | 3.2 | 6.4 | 0.00 | 0.00 | 0.00 | 85 | 1019.2 |
| 20260502054706 | 1 | 292 | 3.2 | 6.4 | 0.00 | 0.00 | 0.00 | 85 | 1019.2 |
| 20260502054630 | 1 | 292 | 3.2 | 6.4 | 0.00 | 0.00 | 0.00 | 85 | 1019.1 |
| 20260502054507 | 1 | 292 | 4.8 | 6.4 | 0.00 | 0.00 | 0.00 | 85 | 1019.2 |
| 20260502054413 | 1 | 292 | 4.8 | 6.4 | 0.00 | 0.00 | 0.00 | 84 | 1019.1 |
| 20260502054316 | 1 | 292 | 4.8 | 6.4 | 0.00 | 0.00 | 0.00 | 84 | 1019.2 |
| 20260502054240 | 1 | 292 | 3.2 | 6.4 | 0.00 | 0.00 | 0.00 | 85 | 1019.2 |
| 20260502054142 | 1 | 293 | 3.2 | 6.4 | 0.00 | 0.00 | 0.00 | 84 | 1019.2 |
| 20260502054006 | 1 | 293 | 4.8 | 6.4 | 0.00 | 0.00 | 0.00 | 85 | 1019.1 |
| 20260502053929 | 1 | 294 | 3.2 | 6.4 | 0.00 | 0.00 | 0.00 | 84 | 1019.2 |
| 20260502053810 | 1 | 294 | 3.2 | 6.4 | 0.00 | 0.00 | 0.00 | 84 | 1019.2 |
| 20260502053718 | 1 | 294 | 3.2 | 6.4 | 0.00 | 0.00 | 0.00 | 84 | 1019.2 |
| 20260502053642 | 1 | 294 | 4.8 | 6.4 | 0.00 | 0.00 | 0.00 | 84 | 1019.2 |
| 20260502053523 | 1 | 294 | 4.8 | 6.4 | 0.00 | 0.00 | 0.00 | 84 | 1019.2 |
| 20260502053446 | 1 | 294 | 4.8 | 6.4 | 0.00 | 0.00 | 0.00 | 84 | 1019.2 |
| 20260502053348 | 1 | 294 | 3.2 | 6.4 | 0.00 | 0.00 | 0.00 | 84 | 1019.2 |
| 20260502053250 | 1 | 294 | 3.2 | 4.8 | 0.00 | 0.00 | 0.00 | 84 | 1019.2 |
| 20260502053106 | 1 | 294 | 4.8 | 4.8 | 0.00 | 0.00 | 0.00 | 84 | 1019.2 |
| 20260502053008 | 1 | 294 | 3.2 | 4.8 | 0.00 | 0.00 | 0.00 | 84 | 1019.2 |
| 20260502052915 | 1 | 294 | 3.2 | 4.8 | 0.00 | 0.00 | 0.00 | 84 | 1019.2 |
| 20260502052818 | 1 | 294 | 3.2 | 4.8 | 0.00 | 0.00 | 0.00 | 84 | 1019.3 |
| 20260502052742 | 1 | 294 | 3.2 | 4.8 | 0.00 | 0.00 | 0.00 | 84 | 1019.2 |
| 20260502052624 | 1 | 294 | 3.2 | 4.8 | 0.00 | 0.00 | 0.00 | 84 | 1019.2 |
| 20260502052547 | 1 | 294 | 3.2 | 4.8 | 0.00 | 0.00 | 0.00 | 84 | 1019.2 |
| 20260502052403 | 1 | 294 | 3.2 | 4.8 | 0.00 | 0.00 | 0.00 | 84 | 1019.2 |
| 20260502052307 | 1 | 294 | 3.2 | 4.8 | 0.00 | 0.00 | 0.00 | 84 | 1019.2 |
| 20260502052213 | 1 | 294 | 3.2 | 4.8 | 0.00 | 0.00 | 0.00 | 84 | 1019.2 |
| 20260502052114 | 1 | 294 | 3.2 | 4.8 | 0.00 | 0.00 | 0.00 | 84 | 1019.2 |
| 20260502052018 | 1 | 294 | 3.2 | 4.8 | 0.00 | 0.00 | 0.00 | 84 | 1019.2 |
| 20260502051922 | 1 | 294 | 1.6 | 4.8 | 0.00 | 0.00 | 0.00 | 84 | 1019.2 |
| 20260502051806 | 1 | 294 | 3.2 | 4.8 | 0.00 | 0.00 | 0.00 | 84 | 1019.2 |
| 20260502051708 | 1 | 295 | 3.2 | 4.8 | 0.00 | 0.00 | 0.00 | 84 | 1019.2 |
| 20260502051612 | 1 | 295 | 3.2 | 6.4 | 0.00 | 0.00 | 0.00 | 84 | 1019.1 |
| 20260502051519 | 1 | 295 | 3.2 | 6.4 | 0.00 | 0.00 | 0.00 | 83 | 1019.2 |
| 20260502051423 | 1 | 294 | 3.2 | 6.4 | 0.00 | 0.00 | 0.00 | 83 | 1019.2 |
| 20260502051327 | 1 | 295 | 3.2 | 6.4 | 0.00 | 0.00 | 0.00 | 84 | 1019.2 |
| 20260502051203 | 1 | 294 | 3.2 | 6.4 | 0.00 | 0.00 | 0.00 | 83 | 1019.2 |
| 20260502051128 | 1 | 294 | 3.2 | 6.4 | 0.00 | 0.00 | 0.00 | 83 | 1019.2 |
| 20260502051005 | 1 | 295 | 3.2 | 6.4 | 0.00 | 0.00 | 0.00 | 83 | 1019.2 |
| 20260502050914 | 1 | 295 | 4.8 | 6.4 | 0.00 | 0.00 | 0.00 | 83 | 1019.2 |
| 20260502050837 | 1 | 295 | 3.2 | 6.4 | 0.00 | 0.00 | 0.00 | 83 | 1019.2 |